GFSMA_prec_cthk_000.txt.gz
RH
57 56 55 56 60 58 56 53 48 45 44 43 40 40 38 39 37 37 36 36 38 39 38 32 30 27 27 24 25 26 28 34 39 36 31 31 33 38 46 58 77 84 94
65 63 62 64 64 62 58 54 48 44 44 43 40 39 38 37 36 37 36 33 33 34 33 32 27 24 23 25 27 29 27 27 27 30 32 30 30 31 34 44 59 76 83
70 68 69 70 68 61 57 51 45 40 38 35 33 32 33 32 31 31 32 33 33 34 34 34 30 25 22 22 23 28 31 27 27 25 26 29 31 30 29 34 43 62 78
74 74 72 69 61 52 47 44 41 38 36 32 30 29 30 30 28 28 27 28 29 30 32 33 31 28 29 26 24 27 26 27 29 28 28 27 29 33 32 30 33 44 57
76 68 64 60 57 48 41 38 37 34 30 29 30 31 33 31 28 27 27 26 27 30 31 32 32 32 29 31 32 26 29 31 28 31 30 28 29 30 33 36 33 33 38
65 67 65 53 43 40 40 39 36 35 34 33 34 34 33 34 32 32 31 31 31 32 34 35 35 36 36 35 33 33 31 32 35 34 35 34 30 28 28 31 35 36 33
59 51 44 41 42 42 41 40 41 39 37 35 35 35 37 39 39 37 37 36 34 36 37 37 39 40 42 41 41 40 40 37 37 39 40 41 40 35 29 28 32 35 37
44 41 42 44 45 43 43 43 41 40 40 37 37 37 35 32 29 27 25 24 28 30 35 41 41 41 40 42 44 44 43 44 43 42 41 42 48 48 40 32 31 34 36
46 47 47 46 46 48 48 49 44 41 39 41 37 34 32 32 28 22 20 19 21 22 22 24 28 35 40 40 42 43 45 46 47 48 48 44 42 45 48 43 34 31 32
52 54 53 48 47 50 49 43 38 33 33 33 31 31 34 39 40 34 30 25 23 23 23 23 26 28 30 36 38 36 36 40 47 52 54 56 50 46 42 44 44 37 32
51 48 45 44 40 41 38 34 34 37 37 35 34 33 33 36 43 50 41 39 34 28 30 27 28 29 31 34 34 35 36 32 32 43 56 61 62 58 52 46 46 44 39
46 40 37 36 35 36 38 42 41 41 36 37 37 40 37 40 39 40 41 38 34 23 26 33 37 36 41 43 35 32 31 32 33 32 41 67 64 64 63 56 48 43 47
35 30 29 32 37 35 42 50 45 60 58 52 46 48 52 45 43 38 41 38 36 28 21 23 30 39 46 52 46 38 33 35 33 33 38 42 63 73 70 73 60 47 51
27 25 28 33 37 38 50 46 58 65 64 57 58 55 55 50 47 39 38 36 31 32 27 24 23 31 46 58 64 52 47 44 42 39 39 41 46 57 69 73 66 54 57
18 24 35 42 57 51 62 66 65 61 61 64 64 59 56 48 46 43 42 44 46 39 33 29 27 24 36 56 75 72 69 62 53 52 50 45 51 52 60 74 67 62 58
21 33 43 52 59 62 63 59 58 58 59 60 59 52 51 46 45 44 47 46 47 47 44 37 31 30 29 42 66 79 77 79 76 64 60 57 58 53 57 77 75 65 74
30 39 44 45 45 46 42 45 46 50 54 52 47 42 44 44 43 43 43 42 46 53 55 47 46 39 36 38 47 79 79 82 85 76 70 67 62 66 64 60 68 64 75
29 37 38 42 43 40 45 51 58 55 48 41 39 38 41 43 41 39 42 52 60 61 65 63 54 47 47 52 47 59 88 85 81 84 79 72 66 62 70 69 74 73 75
35 39 43 43 40 47 54 57 54 43 37 35 36 42 43 42 38 41 54 64 68 71 79 83 73 70 56 61 59 56 74 88 89 86 87 81 72 66 63 84 74 76 76
35 38 42 40 46 56 58 60 54 41 37 37 43 44 43 44 41 52 69 77 80 83 86 90 89 84 80 67 71 64 60 74 88 89 88 85 78 68 71 88 90 72 75
32 42 40 42 51 62 62 61 58 46 39 39 42 42 44 43 46 70 80 85 88 90 92 93 95 95 97 92 80 80 69 47 66 78 80 83 82 75 72 90 98 97 90
42 46 45 50 66 64 65 70 61 42 39 37 37 41 42 39 57 77 85 92 94 94 95 96 96 97 94 95 98 94 90 72 51 59 68 70 77 79 74 87 93 91 87
49 53 57 69 67 67 73 75 54 43 37 35 41 42 41 43 71 80 87 91 95 97 98 97 98 97 93 91 94 96 97 89 67 49 54 52 62 71 78 72 93 92 86
53 58 63 68 73 76 75 60 46 38 37 40 44 43 42 57 78 86 92 95 96 98 98 98 98 94 94 95 97 94 93 86 73 56 40 32 40 57 65 76 74 85 85
60 64 69 74 72 62 53 48 42 39 38 45 45 46 47 70 84 92 94 95 97 98 96 94 93 95 94 96 99 95 85 80 69 59 46 36 29 34 46 60 69 77 81
62 65 63 55 49 54 51 46 43 40 45 45 47 49 53 78 87 93 95 96 98 99 92 91 89 96 96 93 91 85 82 81 74 63 52 44 35 35 34 44 58 62 69

GFSMA_prec_cthk_003.txt.gz
RH
69 68 69 62 59 62 65 60 54 50 44 39 38 35 31 28 26 25 24 25 26 27 29 28 28 28 27 23 24 23 25 24 27 30 29 29 27 28 30 42 56 77 92
85 79 74 70 71 69 65 59 51 46 40 35 31 29 28 26 26 26 25 24 22 23 25 25 26 27 28 26 20 20 22 24 25 25 25 26 29 29 28 29 41 57 74
88 83 80 74 71 68 55 50 46 37 32 29 29 27 26 26 26 25 24 23 22 21 21 22 22 24 26 28 26 21 21 23 24 28 28 29 26 28 30 27 25 37 55
86 84 74 66 59 55 53 47 35 32 31 30 29 28 29 27 26 25 25 25 25 24 23 21 21 21 22 25 26 27 25 23 24 25 28 28 28 25 27 30 30 29 35
75 69 63 58 54 47 37 35 34 33 31 31 31 31 30 29 29 28 27 27 28 27 26 24 24 26 26 26 28 28 30 30 28 27 28 26 31 32 28 26 32 37 32
63 58 52 44 39 37 37 37 37 35 34 34 32 31 30 28 28 29 29 28 27 28 27 27 27 28 28 29 31 30 30 31 31 32 32 34 29 28 29 28 29 34 36
49 46 44 44 44 43 43 43 41 40 40 37 36 36 31 27 27 30 26 25 21 19 19 20 20 21 25 28 29 32 33 33 36 35 35 37 41 40 34 34 32 28 31
47 48 47 47 47 47 47 46 43 38 35 30 28 29 26 25 26 22 25 23 21 18 19 19 18 17 16 15 17 25 30 33 36 39 41 40 40 44 43 42 40 33 29
47 47 48 48 48 47 44 38 35 31 31 28 26 28 30 30 34 28 28 28 29 28 28 25 21 18 17 16 16 15 16 26 31 37 40 43 44 44 45 46 49 46 36
50 48 48 46 42 38 35 33 29 29 30 32 33 33 31 38 40 34 34 33 31 30 29 29 27 22 20 23 19 19 16 17 21 31 38 40 44 47 46 50 47 45 42
46 42 39 34 29 27 27 26 27 28 38 41 42 42 41 44 48 48 38 34 36 35 35 33 28 25 22 23 25 23 24 22 20 21 30 38 41 47 53 50 59 46 41
37 32 26 24 24 27 34 42 41 48 43 42 43 40 40 50 53 59 48 48 43 40 40 37 33 28 23 27 24 25 30 31 27 25 26 33 42 48 56 59 64 57 47
26 23 24 27 33 40 44 47 55 48 50 46 47 49 49 50 48 57 57 48 47 43 40 38 34 26 23 23 29 31 35 38 36 34 36 36 38 45 58 67 68 68 60
23 20 20 27 36 41 45 52 52 61 48 49 48 51 48 49 50 48 51 56 48 42 37 35 36 38 36 29 28 36 47 49 47 44 42 42 39 45 54 62 69 78 68
23 22 25 34 41 49 46 60 46 39 38 39 45 52 49 49 45 43 43 47 50 43 34 33 34 39 40 36 32 36 53 54 59 64 57 51 47 49 45 54 63 73 72
22 27 35 44 51 46 44 40 37 39 43 47 49 43 37 33 35 41 46 47 45 45 39 39 42 46 46 43 39 36 55 61 70 75 72 59 52 53 53 57 59 63 74
25 30 40 48 41 45 47 39 43 47 48 45 41 34 33 37 42 44 44 44 46 46 54 49 56 57 58 57 46 45 55 58 72 73 81 74 59 54 55 59 67 68 58
28 35 40 42 43 48 40 46 51 54 53 47 37 35 36 38 41 45 46 49 45 57 70 63 68 69 74 71 64 59 72 57 72 77 71 80 75 60 59 59 66 72 76
28 34 38 42 42 40 46 53 54 56 56 53 44 36 36 39 43 47 50 46 54 72 79 80 74 78 80 82 76 72 77 69 64 80 78 79 79 77 63 67 67 70 74
31 35 43 43 45 47 52 60 61 60 65 61 42 36 35 41 48 47 50 52 71 79 84 88 85 85 87 87 88 86 91 81 66 71 75 80 82 84 77 69 80 76 84
36 37 44 43 48 53 62 64 64 70 67 51 40 35 37 41 44 47 50 66 79 84 87 89 90 91 93 93 97 98 97 93 76 64 69 73 76 83 87 78 87 91 87
40 41 46 49 55 63 76 70 73 71 55 42 37 38 39 43 47 47 56 74 82 87 90 93 95 94 95 96 99 98 99 97 86 73 65 66 67 81 86 83 89 99 96
40 45 51 56 64 66 70 72 65 50 43 42 40 38 44 47 49 55 68 79 86 90 93 96 97 95 94 98 99 98 98 98 96 87 74 63 65 75 81 89 81 95 97
40 48 55 60 61 61 60 52 48 43 42 41 40 44 47 51 54 60 76 84 87 92 96 98 93 91 92 95 95 93 90 90 96 97 89 66 59 60 70 79 87 82 97
45 48 51 53 52 51 49 51 47 43 42 42 45 47 49 53 57 62 77 73 67 87 97 96 88 86 87 94 95 96 99 98 96 93 90 78 57 51 58 61 79 87 84
48 48 49 50 54 51 52 50 47 42 44 47 44 45 48 51 55 62 71 66 67 88 96 97 89 84 85 95 94 95 99 99 99 94 90 80 69 52 51 49 56 74 80

GFSMA_prec_cthk_006.txt.gz
RH
80 85 86 84 75 72 68 67 62 55 49 45 40 34 30 27 23 23 26 22 20 21 21 21 22 24 26 27 29 29 25 23 26 29 27 26 28 31 30 30 34 46 68
85 88 91 88 83 78 70 65 56 50 47 40 34 30 27 25 24 25 26 28 22 19 18 18 18 18 19 22 25 27 28 26 23 22 29 32 27 26 29 30 31 36 48
78 83 89 86 80 72 65 55 49 44 37 37 35 31 29 30 28 30 28 28 29 25 22 21 20 20 20 18 18 23 26 27 25 24 23 28 32 29 26 26 32 30 34
83 82 80 71 66 59 51 45 40 37 37 37 35 34 35 33 32 33 33 28 28 29 31 25 23 22 21 21 21 22 23 26 30 28 24 23 30 34 32 28 27 32 31
65 64 60 54 49 47 44 42 42 41 40 39 35 34 34 35 33 34 38 35 32 30 27 31 22 20 20 21 22 23 26 26 26 31 33 28 25 31 30 31 28 26 30
51 50 48 46 46 47 46 44 43 43 43 42 37 35 37 34 33 35 39 37 33 31 28 27 27 26 21 17 17 19 22 25 28 28 31 33 34 29 32 35 32 32 27
46 47 47 46 46 46 46 46 46 46 45 43 35 32 30 29 36 37 41 37 34 32 30 28 27 27 25 20 16 18 13 18 22 25 29 33 36 38 35 34 38 35 32
53 54 53 52 49 48 49 49 46 41 37 40 38 32 29 27 30 40 37 33 33 38 32 28 29 26 22 22 21 16 17 14 11 15 23 27 31 38 40 41 36 39 36
56 54 52 49 46 46 45 41 35 32 33 34 40 36 31 28 30 30 35 34 37 35 34 31 31 30 27 25 23 26 22 17 13 12 12 19 28 29 37 41 41 44 45
52 48 47 44 41 36 32 36 33 31 33 31 32 35 38 36 39 37 39 45 42 42 45 41 45 38 35 30 26 26 24 18 13 13 14 13 17 32 31 37 43 43 47
47 44 42 36 32 31 37 33 35 35 38 38 43 43 42 42 42 45 42 45 47 48 46 46 46 46 42 38 32 30 27 17 16 16 16 15 16 23 36 35 38 44 50
37 34 32 32 32 34 36 35 37 46 50 55 50 43 43 49 52 52 51 46 44 42 53 48 47 47 48 40 36 32 30 23 21 20 23 21 19 24 28 38 38 42 51
34 32 29 29 36 39 38 47 55 54 51 55 50 44 48 53 56 60 60 56 47 44 47 51 54 51 46 48 46 39 31 24 26 23 26 29 28 29 32 35 50 48 52
33 32 31 32 35 40 47 56 62 50 47 47 49 51 57 63 61 59 56 52 42 40 42 41 39 39 40 42 38 35 35 41 40 38 34 40 38 39 45 48 57 61 66
33 35 35 35 42 49 53 58 53 47 48 48 53 58 57 59 58 49 51 53 55 44 40 38 39 39 41 43 44 43 42 45 42 50 44 48 54 50 54 59 60 63 70
36 35 42 44 42 51 50 48 47 51 50 55 58 59 57 50 48 51 51 52 54 56 45 43 41 44 47 50 55 53 48 41 47 50 50 61 71 61 57 58 64 63 65
36 33 37 40 43 47 46 59 52 50 54 59 62 61 60 54 53 52 51 53 57 60 56 39 45 57 58 60 62 62 63 60 69 66 54 65 79 72 61 57 61 68 66
33 33 33 38 43 46 48 45 49 56 60 65 64 66 68 61 52 47 50 59 63 62 54 47 60 66 68 69 68 68 69 72 76 82 65 58 72 78 72 61 59 67 65
35 33 36 38 40 42 43 50 56 62 66 67 69 71 64 54 48 49 54 56 57 56 58 67 70 74 75 77 77 78 76 80 88 93 71 64 71 75 79 71 62 63 62
32 36 39 41 40 40 46 55 62 71 72 72 73 64 50 47 48 49 49 54 56 59 70 76 77 79 81 83 84 85 87 88 93 96 84 65 69 76 81 81 72 74 65
35 39 38 39 43 48 54 61 68 75 70 63 52 42 43 44 41 42 50 55 59 66 75 81 83 84 88 89 90 90 91 93 98 98 92 76 73 75 84 86 82 89 81
37 43 47 52 52 55 60 62 63 62 56 46 44 43 43 42 47 48 53 57 62 72 79 86 88 91 93 94 92 91 95 97 96 99 97 89 77 75 80 86 84 86 98
39 43 48 58 56 59 53 51 48 47 47 44 45 43 43 48 52 55 58 62 69 72 74 76 91 94 95 90 85 89 95 96 97 98 96 93 82 79 75 80 87 83 98
41 43 49 51 54 50 48 49 47 47 45 46 44 48 49 51 55 54 55 63 74 78 74 85 94 98 97 85 85 90 92 93 96 94 95 91 89 79 75 80 83 86 95
42 47 50 50 54 54 56 53 52 48 46 44 51 50 47 49 49 46 53 68 76 78 76 88 97 96 88 77 79 92 93 92 93 88 93 92 91 82 74 75 78 87 85
44 46 46 49 54 61 58 54 51 49 46 51 51 48 43 43 45 51 60 70 84 79 71 90 98 98 88 80 79 94 96 96 98 96 87 87 87 84 76 67 69 76 86

GFSMA_prec_cthk_009.txt.gz
RH
76 78 83 78 81 85 85 83 77 68 60 51 46 42 36 33 33 31 30 27 26 23 21 19 17 18 18 18 19 22 25 26 25 23 20 24 29 27 25 27 32 37 41
78 76 76 79 84 87 86 78 68 61 54 49 43 40 37 37 37 34 31 31 28 29 26 23 21 21 21 21 20 18 17 21 25 24 23 22 21 26 29 26 24 30 35
78 81 83 81 85 78 67 56 51 49 48 47 45 43 38 35 34 34 37 40 42 38 38 35 30 23 23 23 23 22 21 21 20 25 25 24 22 23 24 30 27 24 28
70 67 65 70 62 53 49 47 48 48 47 47 44 38 36 34 35 38 40 44 48 47 44 40 39 34 23 21 21 22 24 24 23 22 25 27 26 25 24 24 28 30 25
49 47 48 47 45 47 48 48 46 45 43 41 38 41 40 33 37 37 34 38 50 51 52 43 40 35 27 25 21 20 23 24 24 25 24 26 29 30 27 27 27 32 32
42 46 50 48 49 52 51 50 47 46 43 45 42 44 35 35 32 34 46 49 50 50 49 49 43 41 42 36 28 20 23 22 22 25 23 24 27 29 33 33 31 29 30
49 51 54 55 56 54 53 50 49 52 46 40 41 45 42 37 36 35 41 49 50 44 45 43 42 39 37 35 31 30 21 23 24 20 13 15 21 26 28 32 38 34 31
57 58 57 57 57 53 50 49 52 50 43 40 40 42 37 32 30 33 33 34 34 42 44 44 39 36 38 37 31 28 30 25 22 21 14 11 11 16 24 26 32 38 38
57 54 52 52 51 50 46 43 44 48 41 38 37 38 37 38 36 36 33 32 33 38 44 40 38 37 41 35 34 35 32 25 20 19 18 18 16 11 13 22 25 34 40
53 48 45 44 46 45 43 41 47 48 41 43 41 40 40 40 38 35 36 37 42 43 45 43 46 44 44 45 39 38 35 27 23 20 15 15 17 21 13 12 20 26 37
41 37 34 34 35 39 42 43 50 49 45 44 43 42 38 44 44 41 39 45 47 47 49 51 53 48 50 46 47 45 41 33 27 24 18 16 17 18 20 18 14 22 27
39 33 34 35 34 38 44 51 50 45 49 49 53 50 41 43 41 46 46 43 49 49 57 54 53 55 52 51 48 44 45 44 39 30 26 22 19 19 24 22 20 21 30
35 34 36 37 39 42 47 41 39 43 55 58 59 46 44 49 52 57 58 56 51 47 45 48 51 50 48 44 42 40 39 40 36 35 35 30 28 29 24 21 19 26 31
34 35 39 42 46 44 41 44 54 54 57 62 48 47 52 53 60 62 63 61 47 47 47 48 49 50 50 48 48 43 39 40 37 36 35 30 33 35 32 27 24 24 35
35 41 43 47 46 44 51 53 46 46 53 51 48 57 58 62 61 62 61 63 62 53 47 46 47 53 52 49 48 47 45 44 45 38 34 29 33 39 38 40 36 36 42
40 42 40 41 45 49 46 48 51 50 60 59 53 61 62 64 65 65 68 68 65 58 47 52 52 54 52 52 53 52 51 52 48 49 37 33 34 39 44 44 42 44 54
45 40 37 37 39 44 50 51 50 46 59 60 60 67 68 69 70 71 72 70 64 61 57 46 55 52 49 56 60 60 59 58 58 61 57 56 50 43 45 53 52 53 60
44 38 39 40 45 44 43 41 47 49 55 65 69 70 70 72 72 68 63 60 57 58 59 52 48 52 58 64 65 66 65 68 68 71 74 71 70 57 52 59 57 56 54
41 42 42 46 46 46 48 54 52 59 67 68 72 72 70 63 54 54 55 53 51 52 56 56 51 59 64 68 70 72 74 74 74 80 80 85 78 65 57 54 64 61 60
41 41 46 46 44 48 47 51 55 59 63 70 75 71 54 45 45 44 43 42 50 52 57 58 60 66 72 75 77 79 79 84 86 89 90 93 85 70 65 58 65 63 62
42 42 47 47 52 56 53 46 52 59 62 59 56 51 45 44 42 40 43 48 54 56 56 63 68 72 72 80 86 86 87 83 79 86 91 99 93 85 78 74 73 72 73
44 47 51 50 54 57 53 53 43 45 46 49 50 44 45 48 49 49 51 52 52 55 60 68 72 69 77 85 89 93 88 79 78 90 95 98 99 92 90 86 69 74 77
52 52 53 49 53 55 51 44 44 49 51 50 48 47 48 50 53 53 51 47 54 58 68 76 76 77 87 94 94 90 81 80 84 90 99 96 97 89 95 91 61 71 81
59 57 53 53 54 50 50 48 53 54 53 51 49 47 51 51 50 45 38 48 58 65 75 78 74 76 92 94 93 79 78 79 83 86 95 95 89 88 91 90 63 68 79
56 57 56 53 50 53 51 54 57 52 52 51 49 52 49 46 42 38 43 54 59 70 78 76 68 84 90 90 83 74 75 81 87 89 93 94 93 92 86 80 63 66 81
55 57 56 51 47 53 53 57 51 50 50 51 53 52 48 41 39 34 37 43 60 72 72 70 78 92 92 94 84 75 76 87 94 90 96 93 93 91 82 72 63 62 82

GFSMA_prec_cthk_012.txt.gz
RH
70 69 71 75 76 75 76 79 76 71 67 57 46 45 46 47 43 39 37 33 31 32 31 27 25 23 22 21 21 21 19 18 19 24 26 29 26 21 24 30 28 25 28
71 74 73 72 72 70 72 74 68 56 49 47 45 44 45 42 40 38 39 37 35 36 36 35 33 30 27 26 24 23 22 21 20 19 22 27 30 28 22 23 29 29 27
68 66 61 56 52 45 58 57 48 43 42 41 40 38 37 37 37 35 35 36 39 39 43 43 39 38 36 32 28 26 23 22 22 21 21 22 26 31 31 26 25 28 28
49 46 40 38 38 40 41 43 44 43 41 40 40 37 41 39 37 30 38 38 36 43 45 45 53 42 39 35 30 25 24 26 26 22 23 22 22 25 31 32 29 27 26
36 36 39 41 43 44 47 47 46 44 39 37 38 39 39 40 35 33 35 36 41 51 55 55 51 48 47 40 37 32 27 30 25 25 24 19 21 22 23 31 34 33 31
38 41 43 43 45 49 50 49 46 44 47 49 43 37 37 39 35 34 39 39 42 44 50 50 50 50 46 43 42 42 38 27 30 33 33 22 14 17 21 22 29 36 37
44 45 47 49 48 45 42 38 38 42 42 41 39 36 34 33 33 33 34 33 36 42 44 44 43 45 43 39 40 39 33 38 37 32 27 24 20 11 12 17 20 28 36
47 51 51 46 42 39 35 36 38 37 38 42 39 35 34 34 34 33 30 30 32 34 36 39 38 39 38 39 36 35 38 37 32 31 30 26 24 21 11 10 15 19 25
55 56 47 41 37 33 33 34 37 40 42 42 40 38 36 36 36 33 29 29 29 27 27 31 38 42 41 40 31 35 36 33 30 25 25 25 24 24 23 15 11 18 19
52 45 36 33 31 29 30 34 40 41 40 39 37 34 34 36 36 34 34 30 30 33 38 39 37 39 40 35 34 35 37 36 30 27 27 26 24 26 23 24 22 16 21
50 40 37 33 30 28 29 35 41 42 39 35 33 33 34 40 41 40 34 29 28 28 34 48 46 43 42 39 36 40 42 35 34 33 30 29 31 29 25 25 27 25 22
42 36 35 32 30 32 36 41 40 37 36 38 36 44 47 45 47 42 36 33 35 33 39 46 47 46 40 40 40 36 33 31 30 32 32 30 33 35 26 28 35 30 26
41 35 35 33 31 39 40 37 36 36 35 40 43 45 46 42 42 39 42 43 46 38 40 40 45 47 46 42 39 40 37 35 33 30 30 33 35 36 31 29 35 28 25
42 36 36 33 40 43 40 32 35 41 41 44 50 53 53 42 50 49 50 49 43 44 44 48 46 47 46 48 47 45 41 37 32 36 33 37 38 32 31 34 43 32 25
37 39 35 40 44 46 38 39 38 40 40 43 53 54 60 47 51 52 58 59 60 52 52 54 51 50 50 49 46 44 39 36 38 40 38 41 43 34 32 35 40 37 31
40 39 42 43 37 38 45 47 43 47 47 45 59 63 57 50 61 65 60 61 65 65 57 52 49 52 52 47 43 41 38 40 41 44 44 48 48 42 37 35 34 39 36
42 47 46 41 36 38 43 44 45 43 47 48 63 63 61 65 72 61 54 56 49 49 51 46 46 48 45 43 39 42 46 46 47 53 56 56 57 54 51 46 42 40 44
53 52 45 40 43 50 48 41 42 44 52 50 48 59 65 62 65 60 54 42 42 43 45 44 41 43 44 45 49 50 51 54 56 55 56 58 62 64 59 60 52 48 47
58 53 47 46 54 51 47 48 51 54 54 60 58 61 55 61 57 49 35 37 39 39 40 44 44 47 49 52 52 56 59 60 64 65 70 74 72 73 69 70 64 55 48
62 54 51 53 59 51 56 56 60 56 52 51 53 51 51 44 39 37 37 38 39 44 45 48 48 48 51 52 55 59 62 65 65 68 69 75 78 86 80 74 71 60 52
60 57 55 63 63 58 64 64 59 50 47 43 42 44 44 41 40 39 41 43 45 46 44 47 50 53 57 61 66 70 76 78 75 75 74 75 70 88 82 83 80 73 63
62 64 66 65 65 64 62 59 56 51 37 41 46 43 41 43 44 47 47 46 44 42 46 55 59 67 69 74 74 83 83 81 74 67 66 65 76 91 98 94 94 80 69
74 71 70 73 69 65 51 49 50 46 50 51 46 40 42 45 47 45 44 41 41 48 57 62 67 77 78 76 79 85 83 79 64 62 68 66 83 92 98 95 83 71 71
68 71 73 76 65 61 60 53 51 52 56 47 44 42 44 48 43 41 36 33 35 44 56 65 71 73 69 77 85 83 82 65 59 61 66 65 85 92 87 89 79 70 70
67 69 69 67 66 55 51 55 53 57 51 46 43 44 47 48 42 40 36 34 36 40 53 63 64 64 78 87 86 88 79 66 62 68 75 75 84 86 88 82 73 66 64
62 62 64 61 60 52 53 53 62 55 49 45 43 44 48 45 43 42 38 38 38 41 45 60 69 78 86 86 88 90 79 70 71 81 81 81 85 92 85 82 76 72 68

GFSMA_prec_cthk_015.txt.gz
RH
61 64 64 62 62 66 62 61 61 66 66 54 41 39 38 37 36 34 35 37 38 37 39 39 37 32 30 28 26 24 23 21 21 21 20 21 28 30 30 27 29 32 32
58 58 60 62 58 50 45 42 43 41 37 38 38 35 34 32 32 33 35 33 34 36 38 40 42 42 40 36 31 30 27 24 23 22 23 24 22 24 30 30 29 25 29
51 50 48 46 36 31 30 33 36 38 38 35 35 33 34 37 38 38 38 32 35 37 37 41 43 44 42 41 42 38 32 32 29 24 23 26 27 24 24 30 30 30 26
40 36 33 32 32 35 37 38 39 38 37 37 33 35 35 36 36 36 35 34 38 41 44 44 45 45 43 41 43 39 37 36 32 30 28 26 27 27 25 24 28 32 33
32 33 35 39 41 42 42 42 42 40 34 31 35 37 33 33 34 32 31 34 37 41 42 43 43 42 43 42 42 44 43 39 31 31 31 36 33 24 20 21 24 26 31
37 40 44 45 46 45 42 39 35 30 29 31 33 32 31 31 32 30 30 31 32 36 42 44 44 41 41 41 42 42 44 42 39 34 28 26 27 26 23 20 18 20 24
42 44 48 49 45 38 35 32 30 30 30 30 30 32 31 28 27 26 24 23 24 28 32 37 38 41 42 43 42 42 39 34 31 33 37 28 25 23 24 24 24 22 18
47 48 51 49 38 33 31 30 30 29 30 32 33 33 30 25 24 25 24 24 24 23 23 26 32 36 39 37 35 35 34 34 28 28 30 36 26 23 23 23 24 23 22
49 48 50 41 31 29 29 29 29 31 33 35 34 32 31 30 27 27 27 27 26 26 27 28 25 27 32 34 35 35 33 30 25 26 25 28 32 28 23 25 26 23 24
45 46 44 40 32 28 27 26 29 32 33 34 35 35 33 34 32 30 31 34 34 32 25 21 35 40 39 39 38 36 36 32 27 27 29 27 29 31 29 28 28 28 31
47 45 48 45 37 33 31 31 35 37 37 37 37 37 38 36 34 36 33 34 32 29 27 33 39 42 45 43 41 41 38 33 30 28 28 29 31 30 30 34 32 32 34
49 46 43 41 35 33 34 38 40 38 37 38 37 36 37 38 40 40 39 33 28 28 30 34 39 43 42 44 43 38 33 29 29 28 28 29 28 29 30 37 32 33 36
49 40 44 43 35 35 39 42 37 32 34 36 37 37 39 45 48 47 42 34 30 29 34 36 40 44 47 43 39 36 34 33 32 33 33 31 30 30 32 34 32 32 36
51 47 50 46 37 41 47 47 40 38 37 40 40 36 45 57 52 46 49 40 40 39 36 39 45 50 53 50 47 45 37 33 34 34 31 29 31 33 35 38 34 30 32
68 54 45 39 40 45 48 49 47 46 43 45 51 58 54 56 55 54 55 52 58 48 39 35 38 44 45 44 41 38 36 37 35 31 31 31 34 38 40 40 35 31 31
64 55 61 50 48 48 50 51 52 53 58 57 61 62 59 68 65 62 59 57 60 53 45 34 35 38 40 41 40 38 35 33 34 36 37 39 42 47 47 45 40 35 31
65 58 54 55 54 56 57 51 52 56 59 60 57 56 55 51 55 58 60 57 56 52 38 36 35 35 36 35 35 35 37 39 39 41 43 45 47 50 52 51 49 45 40
60 58 62 62 56 59 58 56 56 60 59 59 60 58 59 54 58 57 53 48 36 33 33 33 30 33 35 37 39 39 40 42 45 48 52 56 59 56 56 58 57 52 50
69 75 72 61 62 62 63 60 64 66 63 60 57 57 48 43 46 44 40 36 35 34 35 38 35 34 35 37 38 40 42 44 48 52 54 57 59 59 58 59 63 64 62
78 69 64 64 69 75 72 72 69 66 62 59 56 48 38 38 39 41 39 36 37 38 38 36 34 37 41 44 48 49 52 57 57 61 65 68 71 69 65 68 72 70 69
73 75 73 78 76 79 74 65 57 59 55 59 44 34 41 42 36 40 37 40 40 38 36 35 39 44 48 52 57 60 59 57 64 68 67 69 69 70 71 80 78 81 79
76 83 81 80 82 78 74 62 60 57 50 44 43 44 45 40 40 40 42 43 41 37 34 41 45 49 54 61 63 62 66 69 66 67 66 56 55 56 74 84 87 87 88
85 82 79 79 77 76 66 62 60 56 52 49 51 48 45 43 42 44 45 41 37 35 36 41 46 53 59 67 64 68 72 71 71 65 56 46 50 52 79 87 87 89 87
82 75 74 74 74 68 61 58 62 57 50 55 53 48 45 41 44 47 43 40 38 39 40 42 48 52 60 61 75 79 76 74 72 57 57 53 53 55 71 89 91 90 73
74 68 68 71 59 58 57 60 59 56 55 56 54 49 44 44 49 45 43 42 39 39 42 43 47 53 63 75 82 83 81 79 64 54 63 67 66 63 70 77 85 80 66
68 68 58 48 45 50 52 55 56 55 57 52 48 44 44 47 47 45 44 39 38 40 40 42 47 54 68 81 85 84 80 80 64 64 74 74 70 75 72 81 80 73 66

GFSMA_prec_cthk_018.txt.gz
RH
53 52 51 52 55 55 54 44 38 38 38 37 32 33 32 30 30 31 31 31 30 32 32 35 34 35 36 36 34 32 31 28 27 23 21 20 21 22 25 28 30 28 31
46 44 49 52 48 42 34 29 31 31 31 32 32 31 27 28 31 33 32 32 34 31 32 34 35 36 38 40 40 39 36 34 33 29 25 21 21 21 23 23 26 29 29
39 43 42 38 32 27 28 31 32 32 32 31 32 32 29 30 31 31 32 31 32 29 34 37 40 41 40 42 40 39 42 42 37 35 33 31 26 23 19 22 23 24 29
33 31 31 28 30 34 35 34 34 32 34 34 31 29 29 30 29 30 29 28 27 29 32 36 36 35 35 37 37 40 41 42 40 38 40 38 33 25 20 16 19 23 23
27 28 30 33 35 38 39 37 36 36 34 29 28 30 32 31 31 30 28 26 26 28 31 36 38 36 36 36 36 38 39 41 41 40 37 35 30 26 27 25 22 17 19
29 32 34 36 39 43 39 33 32 30 27 28 29 30 31 32 31 29 27 25 25 28 29 30 31 32 32 33 34 38 41 40 43 45 39 32 28 27 27 29 26 25 22
34 36 38 41 44 45 36 31 29 29 29 27 29 33 34 33 31 29 28 27 26 26 24 25 26 28 29 29 30 33 35 39 39 37 35 34 29 25 27 29 33 28 26
38 43 44 45 46 46 40 38 35 35 30 30 34 36 36 32 27 27 26 24 23 22 23 27 27 28 29 32 33 31 31 33 32 30 26 23 28 23 27 29 30 31 33
45 48 46 44 42 43 40 36 33 31 32 34 37 39 38 34 32 33 31 28 30 33 30 28 28 28 27 29 30 33 38 39 36 29 28 28 31 35 27 25 26 30 31
48 49 51 48 41 35 37 38 35 31 34 40 43 42 41 39 38 35 35 36 35 34 31 27 26 29 30 31 32 35 40 42 40 37 31 29 30 31 33 27 27 29 32
51 52 54 51 46 44 40 39 37 38 42 45 45 43 41 41 44 43 40 39 37 36 36 28 25 25 28 34 35 34 36 40 41 37 31 26 25 28 30 31 26 28 30
60 60 57 54 55 58 55 46 45 44 44 44 43 44 44 49 50 46 47 48 47 46 41 31 30 27 31 35 38 38 38 38 39 36 32 28 28 27 27 30 28 27 28
63 65 64 60 58 64 51 56 56 54 50 49 50 50 51 55 52 50 53 51 47 47 41 34 36 32 30 32 40 45 47 45 42 39 35 31 28 26 24 26 32 30 35
68 66 77 76 58 55 50 56 55 56 56 52 49 52 56 56 60 60 61 59 48 47 40 38 38 40 36 31 34 36 36 37 36 32 28 24 25 28 33 37 36 35 39
79 82 73 60 59 56 51 51 57 60 59 57 56 56 58 66 65 65 64 65 67 51 41 46 41 41 37 35 35 35 34 31 29 27 27 28 34 36 39 40 40 40 37
81 66 65 59 57 56 59 58 58 61 57 58 63 69 67 62 66 68 59 57 61 60 50 47 38 31 29 28 28 28 29 30 31 32 34 36 39 40 41 41 39 40 40
73 70 64 63 65 73 64 60 64 64 65 70 73 68 66 68 67 60 59 53 52 48 38 32 31 30 30 31 30 31 31 31 31 33 35 39 39 41 43 45 45 45 43
76 70 72 76 71 60 63 68 75 80 73 71 66 68 71 63 58 46 42 41 40 35 36 32 31 34 33 32 32 31 32 34 35 36 38 38 39 43 45 49 49 48 47
73 77 79 71 71 76 77 80 80 71 71 71 71 67 61 59 41 37 40 40 34 35 37 37 34 34 32 35 37 40 41 40 42 44 45 45 47 50 52 52 49 49 48
77 78 76 77 75 79 85 83 78 73 72 68 60 54 52 40 39 43 40 36 36 38 39 36 31 30 36 41 45 47 44 45 43 43 45 50 54 58 58 56 56 55 59
84 84 79 82 83 81 81 80 78 78 69 60 56 49 45 45 47 42 38 37 39 40 38 33 31 32 38 43 50 52 52 47 56 60 59 63 58 58 59 60 67 70 74
87 86 90 82 82 78 78 79 72 63 62 66 60 49 47 50 48 41 37 41 43 40 36 33 34 36 40 48 52 53 53 63 66 63 64 61 60 56 53 51 67 77 81
92 89 83 80 73 71 76 72 63 62 59 66 65 53 51 53 48 41 39 45 42 41 38 38 37 39 41 47 52 59 71 72 70 68 69 60 53 45 43 47 71 77 78
90 85 78 74 71 66 60 58 56 52 51 50 51 51 52 49 43 39 43 41 39 39 39 41 41 41 43 47 57 72 78 75 70 66 65 49 53 52 48 50 68 84 78
86 76 72 69 62 54 49 50 45 49 51 54 53 53 48 40 39 42 41 38 36 36 38 41 42 44 44 50 65 78 81 76 69 65 65 62 63 61 55 61 78 82 83
78 71 69 57 47 40 38 40 45 50 48 50 52 48 46 40 43 45 40 38 35 36 38 39 39 42 46 50 61 80 84 80 76 69 68 66 68 68 61 67 68 80 81

GFSMA_prec_cthk_021.txt.gz
RH
47 48 48 46 49 47 44 40 35 35 34 33 33 32 29 26 24 25 26 28 29 28 29 32 33 34 35 34 35 34 33 33 33 31 28 27 23 19 18 18 19 24 29
43 42 43 43 45 40 35 32 34 33 34 33 32 30 28 25 24 25 26 27 27 27 30 32 35 38 39 38 36 36 35 34 34 34 32 31 26 24 22 18 17 18 20
41 42 42 39 34 30 32 35 36 36 34 34 33 31 25 25 24 24 24 25 24 26 27 30 33 38 39 39 36 36 38 37 35 35 33 34 31 28 25 23 20 17 17
39 35 31 30 31 34 35 35 35 34 32 31 28 27 28 27 27 27 27 27 26 28 31 32 33 33 34 35 35 36 37 36 37 39 41 35 32 30 27 26 23 19 15
30 27 28 31 33 35 34 35 35 32 29 28 29 29 28 28 29 31 29 28 27 25 26 28 29 29 27 27 29 30 34 36 36 39 40 36 31 24 23 25 29 30 26
28 29 31 33 35 35 36 38 40 35 33 33 32 31 30 32 35 34 32 28 26 23 23 24 26 27 27 27 29 31 32 36 37 38 35 34 28 29 24 25 25 29 30
31 32 34 38 38 36 34 36 37 37 35 34 32 33 34 36 38 36 35 32 27 26 26 27 28 30 29 31 31 31 35 37 39 43 44 43 33 29 30 30 30 30 32
35 36 38 40 41 44 43 39 35 39 40 39 38 37 40 41 42 41 39 39 37 35 37 38 36 35 34 33 34 34 33 36 38 38 36 34 34 34 35 35 35 32 31
41 43 45 47 48 47 47 47 50 47 48 44 44 45 45 47 49 49 45 45 45 46 45 42 37 36 35 35 36 37 38 36 37 38 36 35 37 41 39 32 30 33 31
49 50 50 50 52 56 60 54 50 56 49 52 54 55 55 57 57 53 53 53 52 49 52 48 41 35 31 31 30 33 33 32 31 31 32 33 40 41 39 29 27 28 30
55 56 55 54 55 59 58 64 67 61 56 52 53 50 52 54 56 55 53 54 52 55 55 52 52 45 41 40 32 23 27 33 34 35 37 38 38 40 36 31 27 23 27
60 59 58 57 64 74 83 69 61 56 57 59 57 53 57 60 59 60 56 56 58 62 62 62 63 57 45 36 34 32 24 25 33 41 44 44 42 39 34 27 20 19 22
66 67 62 66 73 91 74 59 58 60 60 60 62 60 59 59 62 59 57 59 60 60 62 69 75 55 43 40 35 34 30 28 29 31 34 35 32 27 24 23 23 27 31
71 70 65 86 93 76 59 63 59 61 66 65 68 64 62 58 55 58 65 63 60 60 68 67 55 47 41 35 31 29 27 25 24 28 28 26 27 30 28 28 31 34 35
79 77 83 82 71 70 62 55 65 74 68 66 67 67 67 65 66 65 65 67 72 71 56 46 44 36 29 26 24 23 22 22 22 25 27 32 35 39 42 40 40 39 38
82 80 77 76 75 66 65 78 69 68 69 66 67 71 71 71 67 68 72 70 61 53 42 36 31 29 25 25 26 27 28 29 30 31 32 33 39 43 43 42 41 39 40
76 73 73 76 71 74 73 70 72 75 73 78 72 71 71 71 71 72 66 58 47 42 38 30 29 29 28 28 29 30 30 30 31 33 34 38 36 35 35 37 37 36 35
70 74 73 74 79 78 85 81 75 75 73 66 65 65 68 67 60 60 53 41 41 40 36 31 31 32 30 28 28 30 32 34 37 38 37 37 37 37 40 42 40 39 37
76 74 79 82 84 91 81 79 77 71 68 71 72 68 62 56 52 43 39 41 41 36 36 36 35 33 29 28 29 31 35 38 41 39 35 36 37 36 37 42 45 44 43
76 82 85 87 92 82 81 73 75 74 73 76 71 63 62 60 52 43 44 47 39 37 39 40 37 32 31 31 32 35 35 41 39 44 47 51 53 52 51 50 53 51 48
82 81 80 89 85 80 80 77 75 79 76 69 61 56 60 61 59 46 50 48 40 39 42 40 36 34 33 33 34 36 41 41 51 55 57 59 57 54 52 52 53 52 55
80 82 93 93 87 84 74 75 74 70 66 60 56 54 47 48 49 50 52 44 39 43 42 40 36 35 35 36 36 38 44 53 61 63 64 60 57 53 52 49 50 50 62
87 92 93 94 87 73 67 63 59 55 54 52 48 51 54 52 50 51 44 39 42 44 42 39 35 36 36 38 37 39 51 65 70 66 66 61 59 54 50 44 44 44 66
97 85 86 86 71 63 60 56 44 45 46 47 47 46 46 46 48 44 40 41 45 43 42 35 36 36 36 37 38 41 54 68 72 70 70 65 60 57 52 48 55 54 69
92 82 78 74 68 55 45 41 38 40 41 43 44 47 44 45 42 41 41 45 45 42 36 35 36 36 36 37 40 42 50 69 75 71 71 72 62 57 58 52 62 61 71
77 80 75 63 50 37 38 28 33 38 42 45 47 44 45 42 43 43 43 47 44 40 35 34 34 34 34 33 36 42 48 69 81 77 74 69 66 65 60 57 65 65 67

GFSMA_prec_cthk_027.txt.gz
RH
47 48 47 45 44 45 40 32 31 29 29 29 28 28 26 24 22 22 22 21 21 22 23 25 26 27 27 27 25 28 29 29 30 30 30 28 24 23 21 20 23 24 24
45 45 44 42 42 38 33 32 29 31 31 31 30 29 28 25 23 22 22 21 22 22 23 25 29 30 30 31 30 31 31 31 30 28 28 31 33 30 27 25 25 20 20
44 42 43 38 36 36 31 30 33 31 29 28 28 26 25 26 27 28 28 26 25 24 25 26 28 30 31 32 31 29 29 28 28 29 32 34 33 31 30 29 25 22 23
42 42 39 37 36 32 32 34 34 33 32 29 27 28 30 32 33 33 34 33 31 29 30 33 34 35 34 32 29 26 28 27 27 27 32 33 31 31 33 31 29 27 27
45 43 39 34 32 33 35 37 37 37 33 33 35 38 39 41 44 41 40 41 39 37 36 34 32 31 31 31 30 29 31 31 35 37 38 39 39 38 37 34 33 32 33
46 44 36 33 32 37 38 40 41 40 40 43 48 49 51 49 44 41 42 43 43 41 40 39 38 38 37 35 33 33 36 36 42 41 41 43 46 46 40 35 35 34 34
47 42 38 35 39 42 44 47 46 46 50 60 65 64 63 55 51 47 48 48 47 48 48 47 47 46 44 42 40 38 39 39 39 43 44 46 46 46 48 46 47 44 42
45 43 41 45 47 50 53 56 56 57 63 68 73 73 68 63 57 52 50 54 55 53 52 52 50 49 48 47 44 41 40 40 40 42 44 48 49 50 56 55 55 53 51
53 54 57 59 59 58 57 58 63 70 75 80 77 73 62 59 51 51 58 60 57 54 55 53 51 48 45 41 39 39 37 38 44 47 48 47 48 47 52 55 54 49 46
57 58 61 63 63 62 62 65 77 85 84 80 73 65 57 54 55 60 63 58 52 51 47 44 42 41 39 38 37 39 41 41 41 43 40 41 42 44 48 53 52 51 49
68 64 66 67 69 73 76 77 84 93 86 81 64 58 55 57 63 62 56 54 47 43 41 41 43 43 40 42 45 46 46 47 44 40 37 37 37 42 43 47 48 45 45
83 75 77 79 82 79 81 80 81 81 81 74 58 58 63 68 60 55 51 49 45 46 44 38 37 41 43 45 46 44 40 37 33 29 27 26 29 29 32 34 35 35 35
87 88 87 88 86 83 85 84 75 78 74 62 64 70 67 58 53 48 50 54 48 45 38 40 41 40 36 33 30 28 26 23 21 19 18 17 18 21 25 25 27 33 36
91 91 91 86 81 85 92 90 79 79 68 68 71 64 60 56 57 58 53 47 49 44 42 42 38 28 26 26 25 21 20 19 19 19 19 20 21 22 29 30 31 38 40
94 90 89 87 85 95 84 80 78 75 73 76 66 61 59 59 58 57 48 43 40 35 38 38 34 32 30 29 24 23 22 21 22 22 23 24 25 26 31 33 39 41 41
94 95 92 85 96 80 73 78 77 77 85 73 66 66 63 59 57 49 43 37 34 35 34 38 37 35 33 27 26 25 25 24 23 24 25 26 27 28 35 37 37 36 35
98 98 91 93 79 70 82 77 82 86 79 74 75 72 63 60 55 44 38 36 37 37 39 37 39 39 33 28 30 28 26 25 25 25 26 28 29 33 38 35 33 33 34
97 94 87 72 69 80 81 88 83 86 83 82 73 73 70 55 49 41 37 37 39 42 42 40 45 39 33 31 30 29 27 27 26 27 28 30 34 37 40 42 41 42 43
87 86 75 71 81 83 85 82 93 92 86 78 76 68 52 53 50 41 41 40 45 46 43 43 42 36 33 35 33 31 30 28 28 27 29 35 41 44 47 47 46 43 41
76 78 70 74 79 84 92 95 94 92 84 82 80 64 55 57 44 46 42 46 49 49 47 47 40 34 35 35 32 32 30 30 30 31 35 42 44 47 50 51 51 47 41
80 78 78 85 82 97 97 95 95 89 83 78 71 59 56 47 46 47 46 51 52 49 51 46 38 35 36 36 33 33 32 30 30 32 38 53 52 56 57 56 53 48 42
78 78 77 87 87 92 96 97 95 81 71 63 55 52 46 43 45 47 48 52 50 52 49 44 38 38 37 36 34 35 35 40 36 34 37 47 56 60 63 60 54 48 43
76 82 81 96 91 93 93 93 88 78 66 55 47 42 37 36 42 51 53 52 54 54 48 44 40 40 39 36 35 37 43 43 41 33 35 43 59 64 64 61 56 48 44
85 95 90 94 91 85 84 81 79 67 51 42 36 30 30 36 44 54 57 58 59 53 49 43 41 39 37 35 35 40 42 47 43 37 41 41 60 65 65 60 59 55 48
85 85 86 86 80 81 82 73 54 40 33 28 26 28 31 41 51 60 61 65 63 56 53 48 43 40 38 38 36 43 47 49 45 41 41 43 58 65 66 65 69 63 53
77 77 78 77 75 66 55 41 35 32 29 26 28 33 39 50 60 67 71 69 65 64 62 54 47 43 42 41 40 44 47 46 49 51 45 42 58 67 66 68 70 67 57

GFSMA_prec_cthk_030.txt.gz
RH
49 50 54 57 49 45 40 32 30 29 29 27 26 24 23 21 22 24 29 23 22 24 32 35 35 34 31 30 30 30 29 28 28 26 26 26 26 25 24 24 23 18 14
52 49 51 47 45 40 34 31 32 32 28 25 23 24 23 23 26 28 32 32 26 27 29 31 33 36 35 32 32 33 34 32 29 27 28 30 31 30 29 28 25 25 24
52 45 44 43 39 35 31 30 32 29 30 27 27 28 30 32 36 37 39 36 38 34 32 32 33 32 34 36 36 36 34 34 33 32 30 32 32 29 29 29 29 27 25
47 44 42 39 36 34 30 31 32 34 35 36 37 39 40 42 43 44 41 39 37 40 41 36 37 36 36 36 35 34 34 36 36 35 36 39 38 36 34 33 32 32 31
45 43 39 37 35 32 30 32 33 38 40 45 49 47 49 53 51 48 48 46 43 40 41 39 36 34 34 33 33 33 34 36 37 38 42 43 43 43 44 44 39 34 33
46 45 41 39 36 33 32 37 40 45 49 51 54 55 58 57 56 54 50 45 43 42 45 46 44 43 40 38 35 34 34 37 37 37 41 39 38 39 40 41 40 45 46
48 47 42 42 38 39 45 46 50 52 53 58 64 65 61 64 62 52 45 44 46 48 50 48 44 44 40 38 36 33 29 29 32 32 31 31 33 37 39 42 46 51 51
51 48 47 52 52 53 53 55 54 56 60 65 73 76 79 71 58 57 49 48 50 51 51 46 41 39 38 37 34 28 25 23 23 27 30 31 32 36 39 43 51 55 56
55 54 55 56 56 59 60 61 58 58 68 73 80 87 79 65 59 54 53 56 57 54 49 46 44 40 37 35 31 32 29 27 27 28 29 34 34 34 43 45 52 54 56
65 60 60 62 60 62 63 63 67 74 80 79 74 74 68 66 63 57 58 58 57 53 49 49 44 41 39 35 33 32 31 29 29 27 27 35 34 36 44 47 54 59 60
72 76 76 70 66 66 68 73 75 82 88 77 75 71 64 64 61 62 62 57 53 53 53 53 46 39 34 34 33 31 23 20 16 15 15 15 19 27 35 45 48 52 57
80 82 82 85 75 76 78 82 82 90 91 87 79 70 66 67 65 62 57 58 59 58 54 46 38 34 31 29 28 21 17 16 16 15 15 15 15 18 23 25 34 37 44
89 89 88 90 89 90 89 84 82 95 91 84 76 70 73 70 68 66 65 62 61 59 48 39 37 36 35 29 28 23 20 18 17 16 16 16 17 18 20 26 27 34 35
92 92 91 94 93 91 88 80 94 93 85 76 73 81 76 72 73 73 70 63 59 49 45 44 46 41 38 35 30 27 25 23 21 17 18 19 19 20 21 25 29 35 37
88 88 92 96 94 90 84 89 95 85 75 77 87 85 80 79 77 73 68 62 53 48 35 40 40 44 40 38 36 31 26 24 21 19 19 20 21 21 22 27 31 35 39
91 88 90 93 95 95 89 97 82 76 80 89 91 86 84 76 75 71 67 65 54 44 39 43 44 46 43 39 38 31 28 25 23 23 22 20 21 22 23 27 34 35 36
91 92 95 97 98 94 91 80 75 78 79 92 94 91 82 79 76 72 66 53 47 45 43 41 46 50 47 43 39 38 32 26 27 27 25 21 20 21 25 30 33 36 40
83 88 93 91 85 81 80 73 80 84 94 98 95 89 85 82 80 66 59 53 49 49 46 41 45 46 48 46 40 38 35 29 29 30 24 20 20 23 29 35 37 40 40
65 75 80 78 77 79 77 79 86 93 96 91 88 90 89 87 77 64 62 59 56 53 50 45 45 48 51 46 42 40 35 31 30 30 28 27 27 29 35 39 41 44 45
60 71 74 75 74 77 75 83 90 97 96 92 89 88 87 76 65 65 65 62 59 54 53 49 48 52 54 51 45 42 35 31 32 34 34 36 34 36 44 47 49 50 50
65 69 73 67 77 84 82 92 97 96 96 96 94 81 75 66 60 61 57 55 54 55 54 53 53 58 56 53 50 44 35 34 36 37 36 46 41 44 53 60 64 65 55
62 61 65 71 78 88 93 98 97 93 94 92 81 79 70 59 51 45 42 43 51 59 60 60 61 61 56 54 54 43 39 38 38 42 40 41 44 46 54 65 70 58 54
62 66 71 81 83 83 90 90 89 89 85 77 74 66 53 49 43 37 36 42 49 61 66 64 66 62 61 57 52 44 42 42 43 44 43 44 48 45 58 67 69 61 58
71 74 77 81 84 84 84 84 85 78 70 64 53 45 40 37 37 43 45 50 53 66 70 65 63 62 63 60 50 45 43 45 48 47 47 48 48 47 54 66 66 66 66
67 69 70 72 75 76 77 75 69 57 47 41 42 41 38 36 36 40 48 55 64 71 73 68 65 64 63 55 47 44 46 51 52 49 48 52 48 48 52 65 72 73 67
64 63 65 66 67 64 55 45 41 38 37 38 38 36 35 34 39 43 51 60 63 74 78 69 67 67 65 59 51 46 51 57 55 52 53 52 51 47 45 66 74 71 70

GFSMA_prec_cthk_033.txt.gz
RH
71 68 64 60 60 54 45 32 29 32 29 27 26 27 26 27 29 31 33 31 24 25 35 39 38 33 34 33 32 31 30 31 32 31 29 29 30 32 26 22 22 22 20
63 63 59 57 54 45 39 33 33 32 32 30 29 32 33 37 34 33 40 37 32 30 32 37 35 34 35 36 35 36 36 38 38 37 37 36 37 33 31 31 27 25 22
60 61 56 51 47 42 37 34 32 33 34 33 35 39 42 41 40 42 40 42 40 39 34 33 34 34 35 36 37 37 39 40 37 36 36 36 38 41 41 39 37 36 34
61 53 50 46 43 37 36 34 35 37 38 40 44 45 45 47 47 47 46 47 47 43 39 36 33 34 37 39 38 37 35 33 33 35 35 36 39 43 43 42 42 42 40
59 48 46 43 39 37 37 36 38 40 42 46 48 48 49 50 50 47 49 50 47 41 39 37 38 37 40 36 33 30 28 27 27 30 29 29 29 31 36 39 40 39 38
51 45 49 40 40 40 36 38 44 47 50 50 47 48 52 54 56 56 53 50 46 45 42 45 44 42 40 36 32 29 26 24 26 27 26 26 26 25 25 25 26 32 33
49 48 49 45 42 40 49 52 52 52 55 51 56 61 61 59 58 59 53 50 49 48 47 48 47 46 39 35 33 33 31 27 23 24 25 25 26 26 26 25 29 34 36
52 49 54 50 52 53 56 55 55 59 59 59 67 70 72 65 59 55 59 55 51 50 51 49 45 43 43 41 38 33 31 24 21 20 21 22 25 24 23 24 30 30 30
67 60 57 56 59 58 56 56 61 63 62 67 74 78 74 72 67 62 59 57 53 53 54 51 49 47 46 44 38 33 30 26 23 19 17 15 19 19 20 22 30 32 36
77 74 73 65 62 63 62 65 65 65 65 74 83 82 83 80 72 67 63 57 55 56 56 56 54 53 48 42 37 33 30 25 19 15 12 12 12 16 19 20 21 29 30
78 77 77 78 84 86 78 71 67 67 70 83 91 92 85 80 74 71 67 72 63 59 57 58 57 53 46 40 38 34 28 22 17 14 13 12 12 13 20 21 21 23 31
76 81 83 91 95 92 88 87 77 73 80 95 94 92 87 78 77 79 71 69 69 69 65 63 61 54 44 38 34 33 25 19 17 15 14 14 14 14 15 21 23 26 34
82 88 93 95 96 95 91 91 92 93 94 94 96 91 82 84 85 77 72 73 73 72 70 69 62 47 41 40 38 31 26 21 21 18 18 17 16 15 15 19 25 30 35
90 97 88 91 92 93 90 95 93 95 95 98 96 84 89 85 79 76 81 78 74 75 73 65 53 49 49 47 38 31 28 28 25 23 22 21 18 15 16 17 21 27 34
78 85 91 88 89 90 92 95 97 92 94 96 88 87 85 80 81 83 82 79 78 75 71 54 49 50 48 47 41 34 32 32 27 27 26 23 18 17 16 17 18 24 29
73 73 80 82 84 89 93 97 96 93 93 86 79 83 86 88 88 86 83 80 80 75 57 54 54 53 50 46 42 37 36 35 35 32 28 22 20 20 19 18 17 23 31
64 63 67 72 72 80 84 93 88 86 80 76 78 90 92 93 88 84 82 82 75 63 58 57 57 56 54 50 48 47 46 43 41 36 32 25 21 23 20 20 19 24 31
70 65 61 60 63 71 78 84 80 82 84 82 85 92 89 89 88 85 86 83 69 64 65 57 52 52 52 52 52 50 47 48 43 38 34 27 26 28 27 28 27 30 34
55 55 55 58 63 73 82 76 79 77 89 93 97 94 93 94 93 89 83 74 70 69 69 64 56 53 55 55 58 56 56 52 46 43 36 29 30 33 33 32 35 38 41
54 56 59 63 71 73 76 81 78 80 96 96 97 97 96 92 89 87 74 72 70 70 74 73 65 58 61 61 66 61 62 57 51 43 36 35 36 39 39 38 40 45 54
46 53 64 68 69 75 73 76 85 88 88 95 94 94 89 89 82 69 70 63 66 71 72 74 74 72 63 68 71 70 66 61 51 44 41 39 40 40 47 45 46 53 58
51 56 60 65 66 68 71 79 84 84 86 85 84 84 83 73 64 62 56 53 51 47 51 58 71 72 75 71 70 71 71 66 51 48 45 40 43 44 50 46 48 51 58
52 57 62 65 68 71 75 75 79 81 75 77 75 69 61 57 56 54 52 49 45 42 43 47 61 67 75 74 69 71 73 65 54 48 45 42 49 49 51 48 48 52 54
57 61 64 66 67 68 68 68 70 74 71 63 56 55 49 46 46 47 46 43 43 43 39 46 56 65 77 77 65 67 70 63 53 51 52 52 52 50 49 45 43 51 53
60 62 61 61 61 61 65 68 64 57 52 46 42 40 41 41 38 39 40 39 37 41 50 52 54 67 76 77 67 69 67 62 54 55 59 58 57 53 51 45 43 52 63
54 54 57 58 58 55 52 50 44 38 37 38 38 37 37 38 36 36 37 37 37 35 55 72 64 64 71 69 66 70 73 68 64 59 65 64 61 55 47 47 47 49 55

GFSMA_prec_cthk_036.txt.gz
RH
74 71 70 65 67 64 52 39 32 30 27 24 25 26 28 32 35 34 35 33 28 32 39 42 44 36 32 31 31 30 32 33 33 34 34 33 32 31 30 29 25 24 23
74 71 73 66 64 58 50 35 33 31 32 28 27 29 36 41 38 39 38 40 37 33 37 41 44 36 34 33 34 34 34 34 34 33 33 35 34 34 34 36 34 36 35
68 66 59 60 61 52 46 36 34 34 31 31 32 37 42 44 43 44 41 41 39 40 35 34 33 32 31 32 35 36 35 34 32 29 30 31 28 28 28 30 35 37 40
58 56 54 57 52 46 43 37 34 34 34 35 40 45 45 44 47 50 52 45 46 44 40 37 35 31 31 33 34 33 32 29 27 26 26 25 24 24 24 25 24 25 26
57 56 58 53 48 44 40 38 35 36 38 46 49 48 46 50 54 54 52 49 46 39 40 39 37 36 35 36 34 30 28 27 26 24 22 22 24 24 24 23 23 23 23
66 57 54 50 46 44 42 38 39 43 48 51 53 51 54 61 62 60 54 49 48 49 44 41 39 38 38 37 34 33 31 30 26 24 23 24 24 22 20 20 21 21 21
63 54 54 52 49 46 44 48 47 49 52 56 56 59 64 66 67 64 61 57 52 49 51 50 48 41 39 38 37 36 36 34 29 23 20 20 21 21 20 19 18 18 18
57 53 53 52 51 55 58 55 54 53 54 60 61 67 70 72 71 69 64 60 57 56 55 50 50 47 47 45 41 38 38 34 29 25 21 17 15 20 19 19 19 18 18
64 58 61 61 60 59 56 55 59 58 61 63 65 68 72 80 78 69 68 65 61 63 61 58 53 53 52 50 48 45 40 36 33 28 21 16 14 14 19 19 19 19 18
73 73 78 80 78 76 74 70 74 70 68 68 72 75 79 90 91 83 73 68 68 69 63 55 59 62 59 56 54 47 40 35 33 29 23 18 15 14 14 18 19 20 19
65 70 77 84 84 81 80 80 91 93 87 81 84 83 89 95 94 86 82 81 77 74 65 60 62 62 62 62 54 44 40 37 32 28 21 18 16 13 12 16 21 22 22
77 82 86 87 88 92 95 96 95 95 93 89 88 92 93 97 92 85 81 80 81 76 72 69 67 66 68 64 52 42 39 36 32 26 21 17 14 14 14 15 20 24 23
76 76 75 82 87 94 95 92 94 97 95 91 90 95 97 96 92 89 90 85 76 77 81 81 78 75 69 58 50 46 42 37 32 26 19 17 17 18 19 18 18 20 22
65 65 77 82 81 83 86 86 87 90 90 94 97 98 96 93 88 88 83 78 77 81 83 82 82 76 65 56 51 51 46 38 32 25 21 21 22 25 23 21 18 19 22
66 65 75 73 68 67 71 78 79 76 87 88 95 95 90 90 84 86 81 84 87 81 79 79 76 73 60 55 54 47 43 37 32 27 25 25 30 29 26 24 20 20 22
67 74 75 72 70 69 67 67 66 79 75 86 82 82 82 83 85 84 87 89 88 83 76 76 72 57 56 57 55 50 45 37 34 32 32 31 36 31 29 25 23 21 22
68 72 68 66 58 58 59 61 64 71 85 80 80 91 87 83 85 88 91 88 88 87 78 69 58 56 58 57 52 53 49 40 37 39 38 42 40 34 30 26 26 27 29
68 65 61 56 56 58 66 66 67 71 71 94 85 81 82 85 90 92 94 92 86 84 75 63 60 58 58 57 54 47 47 45 43 45 50 48 44 39 32 28 30 34 36
64 61 57 57 58 61 61 64 65 80 74 80 84 82 85 91 91 92 85 83 80 75 70 68 64 64 64 67 64 56 52 49 49 49 55 54 48 41 35 32 32 37 41
59 56 49 46 51 54 65 63 74 71 84 78 77 83 92 90 91 85 82 79 73 69 71 74 68 64 67 69 74 69 61 60 55 52 57 61 52 46 39 35 35 42 44
47 46 45 49 53 59 62 68 70 74 73 78 83 84 85 85 81 78 71 64 64 68 68 67 62 60 59 63 74 78 76 70 63 59 60 59 55 49 40 37 41 47 47
41 42 47 51 56 58 64 66 70 73 74 74 75 75 73 72 67 57 54 52 54 57 55 56 49 53 52 62 74 86 87 79 71 66 63 59 57 46 42 43 49 49 46
41 45 48 52 57 61 66 68 66 66 67 66 65 63 57 50 44 46 46 47 47 47 49 47 48 43 51 52 66 84 82 83 82 80 67 60 56 48 51 48 49 49 43
46 49 53 55 57 58 58 60 62 61 59 58 56 50 44 44 46 46 44 42 38 35 34 39 38 35 43 51 62 77 86 90 86 70 72 63 59 57 56 50 50 48 45
49 53 54 52 55 56 57 56 56 56 55 49 43 42 40 36 36 37 37 36 33 29 28 32 34 38 44 56 72 80 75 90 85 70 73 73 63 61 57 52 51 47 47
49 51 52 51 50 52 54 52 49 45 41 38 36 32 28 29 29 30 30 29 27 22 25 27 32 36 40 61 78 84 93 94 82 74 75 79 70 70 58 55 52 50 45

GFSMA_prec_cthk_039.txt.gz
RH
74 74 71 65 67 71 63 39 32 32 28 25 26 26 27 35 36 36 37 37 32 30 37 40 35 34 33 31 29 29 30 31 30 30 29 29 29 32 31 31 31 31 31
76 73 71 70 68 68 55 41 34 31 29 28 27 30 34 39 38 39 41 40 39 35 40 44 40 36 34 30 31 32 32 30 29 28 26 26 26 26 26 26 25 24 25
75 77 75 65 60 56 49 42 35 32 31 30 29 34 40 44 41 43 45 45 43 41 35 33 33 35 34 33 32 32 32 30 27 26 25 23 22 20 19 19 20 22 22
82 72 60 55 54 52 46 42 35 34 33 32 33 42 47 47 48 48 48 47 45 44 42 39 37 35 35 35 32 31 29 27 27 25 24 23 22 18 17 16 15 16 20
62 51 45 46 50 47 45 45 40 36 34 38 44 50 51 54 57 62 54 49 50 50 45 41 40 39 43 42 38 34 32 31 29 27 26 22 20 18 17 16 19 21 20
51 47 45 49 46 47 47 46 41 40 42 47 50 53 54 57 63 66 67 62 58 55 47 46 46 47 49 46 42 38 39 37 34 31 28 22 19 17 15 16 19 21 21
61 65 52 53 47 47 48 48 50 53 51 52 53 56 60 66 67 68 70 71 69 63 57 54 53 54 53 49 46 43 44 44 43 38 31 26 22 18 19 24 23 22 21
76 64 59 53 52 53 53 55 55 53 51 51 56 63 66 69 72 72 73 75 73 68 65 64 62 62 58 54 48 47 48 48 46 37 30 26 24 20 18 24 23 22 21
76 66 65 59 59 58 59 59 60 62 62 60 60 67 71 71 74 77 84 85 79 73 70 69 68 63 61 55 55 52 52 53 45 37 34 30 26 21 18 17 22 22 21
64 74 77 74 75 82 85 84 78 79 86 81 78 85 83 79 79 85 88 90 80 78 79 76 71 65 60 64 58 59 57 53 46 39 36 32 26 22 19 16 21 22 21
68 65 75 73 80 81 84 85 94 96 93 94 94 87 92 88 88 92 87 89 83 82 80 76 67 61 66 67 64 61 60 54 47 43 40 35 30 24 20 16 20 20 22
80 86 81 84 85 83 80 82 88 95 93 89 92 92 90 90 90 91 93 89 85 81 80 73 68 68 70 68 67 64 61 54 47 44 43 38 32 24 19 16 15 19 22
88 90 86 81 70 77 82 80 73 74 78 78 77 79 79 83 84 91 93 87 80 74 72 74 73 73 74 74 68 64 55 50 48 45 44 37 30 24 19 17 16 17 22
83 86 81 78 68 80 79 76 73 70 70 67 68 71 74 82 82 84 81 82 77 77 78 83 86 85 82 77 69 60 53 51 50 49 45 38 33 25 23 21 21 26 34
78 87 92 81 80 83 77 74 66 62 63 66 68 80 71 87 80 84 82 84 82 74 75 85 88 88 83 74 63 56 53 54 54 49 42 38 32 28 28 28 34 34 32
80 81 87 85 86 78 71 67 62 62 69 68 65 70 76 82 86 90 86 84 81 80 75 80 79 75 76 68 62 58 57 55 49 45 40 36 34 35 36 37 41 38 34
82 66 83 80 68 69 64 61 62 65 67 66 71 75 79 79 88 85 84 85 92 90 81 75 70 67 60 60 62 58 58 56 55 52 48 47 41 40 39 44 45 42 34
72 69 70 70 67 65 60 60 62 64 67 65 71 80 75 85 88 85 85 90 87 89 82 69 62 54 56 62 63 65 67 63 60 59 57 56 59 48 44 48 48 41 35
60 66 70 67 62 59 56 53 54 56 69 64 73 74 81 83 81 84 84 82 81 79 75 65 53 53 57 65 68 70 67 68 71 68 63 61 67 63 51 53 48 43 38
72 70 63 59 50 44 45 51 55 64 61 71 73 76 80 79 77 80 76 74 73 66 62 59 56 54 60 59 66 65 72 74 71 76 72 66 73 70 64 59 52 49 40
67 58 48 46 43 45 50 53 58 65 67 71 72 75 74 74 73 71 67 61 56 54 57 57 55 57 53 51 52 52 58 62 67 84 79 72 77 78 81 66 56 52 45
52 46 42 43 45 50 55 59 62 65 69 70 72 71 70 67 60 51 46 48 51 52 50 52 50 53 46 53 51 52 54 67 81 79 85 84 82 82 80 64 58 56 49
45 40 39 44 49 52 56 59 62 66 63 62 61 60 54 52 48 42 40 39 38 41 45 47 45 42 44 42 50 50 51 60 75 85 91 90 93 93 79 65 60 62 54
38 37 41 45 49 53 56 58 58 57 57 55 54 53 50 44 42 41 38 37 36 37 37 37 40 38 38 37 38 42 45 54 67 84 95 96 94 89 79 65 67 65 55
37 41 43 44 47 50 52 55 54 53 48 49 49 51 48 47 43 38 36 34 30 25 20 18 15 13 11 10 16 32 44 51 61 93 96 95 96 80 70 63 68 62 56
41 43 44 44 50 54 54 49 50 53 51 50 49 45 40 35 33 33 33 31 26 23 21 19 18 17 17 17 13 8 22 51 63 84 94 97 92 82 70 65 66 62 54

GFSMA_prec_cthk_042.txt.gz
RH
67 68 70 71 70 71 70 50 37 37 31 26 22 24 27 31 37 35 36 37 37 36 41 42 40 37 35 32 28 26 28 28 26 25 24 23 25 24 25 27 27 27 27
69 70 72 71 66 70 67 50 38 33 32 26 25 25 28 34 39 39 39 42 41 40 41 43 44 40 38 33 30 30 30 29 27 25 23 21 20 20 20 20 23 24 22
71 72 73 68 67 70 65 51 32 33 30 28 28 29 33 41 43 44 44 47 46 44 45 43 44 40 38 36 34 35 33 32 27 26 24 23 23 22 20 17 16 15 16
71 74 69 74 65 64 58 47 39 32 30 29 29 32 38 45 47 49 52 55 53 54 54 49 45 43 40 41 42 41 36 35 33 31 28 25 25 23 22 19 17 14 13
74 71 70 62 53 55 51 46 40 33 31 30 33 37 41 45 49 54 59 60 61 60 60 56 53 51 49 49 49 48 45 41 40 34 31 30 29 26 22 18 16 15 15
71 65 53 46 46 48 46 42 41 38 36 36 38 41 44 50 55 57 60 63 65 65 65 65 62 59 56 54 54 54 50 48 44 38 36 36 33 28 21 18 17 17 20
61 53 41 40 41 44 45 43 45 47 44 42 43 44 47 52 58 62 63 66 66 67 71 69 65 63 64 63 61 60 52 51 47 46 42 41 37 31 27 23 21 20 26
60 61 54 40 45 47 49 50 51 52 52 52 52 53 54 52 57 65 69 67 66 69 67 67 66 67 68 66 64 59 54 54 56 54 51 46 40 33 27 23 20 19 23
63 64 60 57 52 53 55 61 65 68 69 71 70 72 72 71 72 74 77 73 70 69 71 69 66 65 64 67 63 56 59 59 60 59 57 52 41 33 29 23 19 18 22
60 64 67 67 72 68 69 75 78 80 83 85 87 92 81 79 78 77 79 76 75 73 73 73 73 71 67 62 58 60 60 61 63 62 59 48 39 34 29 24 20 18 21
58 61 64 74 77 76 79 85 86 81 78 81 89 90 84 80 72 75 75 73 74 75 72 73 71 67 62 63 63 63 63 64 64 61 53 43 42 39 34 28 21 18 17
55 65 70 75 83 86 84 79 89 83 85 75 73 72 69 65 56 63 66 69 70 74 75 71 69 71 72 69 67 64 64 63 62 56 49 44 44 45 40 34 27 22 19
59 73 84 93 92 89 83 81 84 83 79 72 65 61 63 63 65 68 67 69 70 70 72 73 73 72 70 69 68 66 64 61 60 53 49 46 47 48 45 38 29 24 22
76 86 94 94 89 89 84 85 86 80 72 66 61 63 68 66 62 69 68 74 72 73 78 78 75 77 76 74 72 69 65 62 56 51 50 51 52 50 47 39 32 27 23
83 86 89 89 91 93 93 85 86 74 66 62 70 72 68 67 59 76 74 69 73 72 74 77 74 78 77 73 71 65 59 53 53 53 53 54 54 55 56 47 38 31 29
83 93 95 90 82 87 81 85 77 71 63 69 75 67 68 70 69 71 72 77 80 80 76 76 76 77 76 73 67 59 53 54 55 55 54 54 57 61 65 61 57 46 42
95 91 87 85 87 81 78 76 70 65 66 71 72 70 65 68 75 71 73 76 80 84 76 73 73 73 70 66 58 52 52 55 56 56 56 58 61 63 66 70 69 68 59
97 72 71 75 70 75 80 69 67 65 66 66 64 64 67 72 66 75 78 79 79 77 74 69 67 64 62 58 55 55 57 62 62 63 68 68 71 67 69 80 82 80 72
96 71 66 69 74 74 68 66 64 62 59 56 55 59 69 69 73 74 77 79 73 74 72 67 60 57 55 56 56 61 62 68 68 74 77 81 87 84 76 77 84 82 79
76 74 73 74 71 69 66 59 50 47 52 53 62 68 68 72 73 72 69 72 71 68 63 56 52 51 51 49 52 53 53 53 54 61 65 58 63 75 84 83 85 88 82
70 73 79 72 69 59 49 43 46 54 54 55 65 67 71 68 72 72 69 67 63 56 51 51 52 51 50 51 50 45 46 44 41 40 45 47 62 73 77 83 84 95 93
70 69 67 59 52 47 43 45 50 54 58 65 65 71 71 72 72 63 61 57 52 50 51 51 50 50 49 52 48 48 48 50 46 30 40 43 51 56 73 83 88 97 93
62 53 49 49 47 44 47 50 55 57 61 63 70 71 67 61 58 52 49 48 49 49 48 49 49 51 45 42 41 39 40 41 37 34 40 35 37 44 59 87 95 97 87
49 48 49 46 44 47 51 53 55 56 61 66 65 60 58 56 51 51 49 47 44 43 41 40 37 32 27 25 26 25 23 21 11 10 26 42 33 42 84 98 99 92 80
50 50 46 42 45 48 50 51 53 56 60 60 60 56 54 56 55 52 49 43 40 39 39 36 32 29 27 29 31 32 26 30 25 19 20 32 49 59 97 98 98 86 79
48 43 40 43 45 46 48 51 54 59 62 59 56 57 60 59 50 43 41 40 38 39 37 35 33 29 27 25 22 21 28 36 38 33 29 30 54 64 97 94 96 87 75

GFSMA_prec_cthk_048.txt.gz
RH
66 64 64 62 59 61 62 56 50 44 37 36 33 27 26 27 31 35 35 33 34 35 39 40 40 38 34 31 30 30 31 31 31 29 28 26 24 22 20 18 18 17 16
67 66 69 67 66 67 64 60 52 46 36 33 29 28 26 30 33 33 37 39 40 43 44 44 45 45 40 34 34 36 37 36 34 32 30 30 27 24 22 20 20 20 18
67 67 71 70 71 71 70 62 54 51 42 36 31 29 36 36 31 37 42 43 42 43 49 50 51 51 49 46 44 43 41 37 33 32 31 31 30 27 26 23 22 22 21
72 70 71 71 73 73 70 69 62 49 39 36 33 38 33 30 35 43 41 42 45 46 49 51 51 54 55 54 51 45 42 41 39 36 35 33 31 31 29 27 25 24 23
75 74 74 74 74 74 71 74 64 48 38 40 40 40 31 33 37 40 41 45 48 50 52 54 56 60 60 57 54 47 45 46 44 41 40 38 35 32 31 30 28 26 24
78 78 78 78 77 78 74 70 60 52 46 41 45 37 36 38 39 41 44 43 48 55 58 60 69 70 67 65 60 51 49 48 46 46 43 41 38 37 35 33 31 29 27
81 82 81 78 78 77 74 65 61 55 51 48 46 45 44 43 43 44 46 51 65 67 71 74 75 75 73 65 61 56 53 52 50 48 46 44 42 41 39 37 35 33 32
85 83 81 81 80 78 66 52 52 57 56 57 55 55 54 57 56 58 59 73 72 68 71 74 73 69 64 62 62 60 58 55 54 52 50 48 47 44 42 41 39 37 36
80 79 86 73 75 66 59 50 49 55 58 57 60 63 59 62 58 65 75 74 72 69 61 66 59 58 62 64 62 61 60 58 58 58 56 53 51 49 47 45 43 41 39
73 74 70 62 57 54 52 47 51 57 60 63 66 70 73 70 67 61 60 59 60 62 55 59 60 60 59 62 64 64 64 63 65 62 60 56 56 55 53 51 47 45 43
66 66 63 59 59 59 56 55 57 62 65 69 76 81 84 89 80 70 59 60 62 61 55 56 53 59 60 63 63 65 67 67 64 64 63 61 60 60 58 55 52 49 45
64 62 61 65 63 63 58 63 69 71 80 88 90 94 92 92 84 71 67 66 62 65 64 59 59 60 66 67 66 66 67 66 67 67 66 66 64 62 60 59 56 51 51
51 52 56 57 59 62 63 69 79 89 89 94 97 97 95 91 87 76 76 70 69 70 68 67 64 66 67 68 66 66 67 68 70 68 69 67 68 68 66 64 60 55 57
55 57 56 55 61 66 70 76 75 86 99 99 98 95 93 94 81 82 77 80 68 68 69 67 69 68 68 66 68 69 68 70 70 68 68 69 69 69 66 65 63 62 61
58 58 57 61 62 65 67 77 83 87 94 97 94 93 86 78 84 82 82 82 71 67 74 65 66 68 70 66 71 70 69 68 67 67 69 69 68 65 64 62 62 63 64
55 51 51 64 71 79 85 92 92 94 93 93 92 89 87 79 81 82 81 79 67 79 64 63 63 68 72 70 72 70 70 70 73 72 72 70 65 63 62 61 61 62 66
65 65 66 67 71 86 95 98 98 94 91 97 94 89 78 73 77 77 75 74 76 74 61 67 65 68 71 67 68 68 69 71 72 69 66 66 61 61 60 60 60 60 61
80 82 80 86 88 88 93 96 95 88 91 91 84 78 70 70 71 74 65 60 70 72 63 60 66 72 69 65 63 67 69 66 61 56 55 51 48 51 50 50 48 52 57
76 83 86 90 80 75 74 80 81 80 78 81 78 72 68 66 64 58 68 65 66 62 65 68 73 72 70 67 67 62 52 49 48 45 42 42 42 41 37 36 36 39 39
75 74 85 88 88 77 72 73 78 80 83 83 72 67 67 62 60 61 62 63 65 65 71 72 77 73 72 74 61 49 46 44 42 43 44 42 38 35 32 31 32 31 28
76 77 75 82 82 83 85 79 72 77 82 78 72 66 60 54 55 57 61 62 66 73 78 78 76 76 77 59 50 47 42 38 41 43 42 41 39 36 34 32 26 18 14
69 72 73 71 79 80 82 82 80 81 76 72 69 60 51 53 53 58 64 64 74 78 76 83 82 69 57 53 47 44 43 44 43 45 43 42 40 35 33 27 21 16 11
69 73 72 73 80 82 79 77 80 76 72 67 58 52 48 56 59 61 66 71 76 78 86 87 64 58 53 48 45 45 48 47 45 46 46 39 41 36 30 22 15 14 16
74 78 75 74 79 82 84 84 72 69 63 62 56 54 56 59 62 67 70 72 76 87 77 63 58 51 49 51 51 50 52 48 47 51 51 44 41 35 26 15 10 15 20
71 75 77 77 75 78 81 69 66 65 57 61 61 59 61 64 67 70 73 80 79 64 60 56 54 54 56 56 58 55 53 52 50 51 55 51 43 34 19 11 9 20 31
63 67 72 78 77 78 68 68 66 63 65 68 63 64 66 68 70 74 83 70 61 58 56 55 56 59 57 56 57 56 58 60 59 52 58 48 39 31 24 13 20 28 39

GFSMA_prec_cthk_051.txt.gz
RH
65 64 60 57 56 57 56 60 58 46 41 36 40 40 40 34 32 34 39 38 37 40 40 41 40 38 32 31 30 29 29 30 31 31 27 25 24 24 23 21 20 20 18
71 65 65 62 59 60 59 61 57 49 41 42 40 37 30 29 32 32 35 38 42 45 46 47 45 45 42 39 38 37 36 36 34 32 29 28 29 28 26 23 21 21 20
76 70 68 67 66 66 65 64 62 56 47 40 40 38 34 28 29 34 37 43 41 44 47 47 48 48 49 46 44 44 44 42 39 34 35 35 33 31 29 25 24 23 22
80 74 74 72 73 73 71 69 64 56 50 44 40 38 28 31 36 39 39 40 41 42 41 46 47 50 52 52 53 52 51 46 41 39 39 37 36 32 31 29 28 27 26
78 77 80 78 78 79 77 76 74 63 56 53 41 39 35 32 39 42 38 43 43 41 41 48 51 50 55 58 61 61 61 52 44 43 42 40 39 37 35 34 33 32 29
78 77 76 78 79 80 81 81 79 71 58 48 48 41 39 45 42 39 41 41 42 42 49 58 61 64 63 67 66 67 64 55 49 48 47 44 41 40 38 38 37 35 33
81 79 79 80 81 81 84 80 77 73 59 55 47 47 51 54 47 50 51 48 47 50 61 64 65 67 72 71 67 61 58 56 54 53 50 48 46 46 45 42 40 39 37
81 80 79 80 83 84 83 80 71 64 61 57 56 56 62 57 57 60 57 61 62 66 67 67 64 61 61 62 58 58 57 57 55 55 55 54 54 51 48 46 44 43 41
84 83 81 84 83 84 81 79 70 55 55 58 63 67 60 59 59 58 61 58 67 65 58 63 60 53 51 54 55 54 56 59 59 55 57 59 59 55 53 50 48 46 45
87 85 84 83 78 83 81 76 68 56 55 57 63 67 67 67 68 70 76 66 63 58 59 60 57 57 52 52 52 54 59 60 59 59 60 62 61 62 60 57 52 51 50
79 80 78 78 78 78 75 66 60 60 57 56 60 65 67 69 76 78 83 85 80 70 63 68 61 64 61 58 57 57 59 62 62 63 63 63 63 65 63 62 59 60 60
70 71 71 72 74 68 56 54 57 69 67 64 65 71 72 78 84 88 92 93 89 81 75 71 68 68 66 62 62 62 63 63 60 63 65 64 63 64 64 65 67 69 69
62 64 64 63 62 64 59 58 59 64 66 64 72 76 85 89 95 97 95 93 91 80 81 81 73 70 72 68 64 62 63 64 64 65 65 65 65 64 65 68 70 70 70
56 58 60 60 60 60 62 60 60 63 66 68 77 82 90 94 96 95 99 96 92 88 89 82 91 87 74 66 65 64 65 68 66 66 68 67 65 67 69 69 69 65 64
60 59 58 57 57 58 61 64 65 67 70 72 79 88 84 92 94 95 91 96 96 88 89 94 82 80 75 65 63 61 65 73 70 71 68 68 68 70 71 68 64 63 60
60 66 69 66 64 65 67 69 69 71 76 78 85 95 96 94 97 93 93 94 93 92 84 83 80 72 77 72 68 62 68 68 70 72 73 73 72 69 67 64 63 59 58
62 66 65 62 60 58 61 66 72 75 81 89 93 97 95 96 96 97 94 85 84 92 77 83 63 66 73 73 70 71 71 66 66 70 72 69 64 60 56 52 49 52 54
62 74 70 70 76 70 70 71 76 85 96 96 97 97 97 94 92 86 84 83 75 77 62 62 76 67 66 67 68 72 73 69 69 62 55 52 48 44 42 44 45 44 44
57 68 75 70 82 81 79 80 83 86 93 94 89 88 86 90 89 80 77 72 65 65 64 71 65 70 66 65 68 69 72 74 63 50 47 44 43 42 44 45 46 45 43
47 55 72 76 76 81 78 79 82 82 83 83 83 85 86 88 90 82 77 74 67 65 63 64 65 66 66 71 71 70 68 57 50 46 44 45 45 47 50 49 50 48 45
43 51 63 77 77 81 80 79 82 81 84 82 80 81 86 86 85 76 70 63 63 64 64 65 62 66 73 75 69 68 54 48 46 46 48 49 49 53 54 54 52 49 46
41 49 56 72 78 81 81 81 84 93 89 79 84 82 87 77 75 74 67 61 58 62 61 65 68 72 75 71 68 57 48 47 50 50 51 54 57 56 56 52 51 48 42
45 49 57 65 71 76 80 84 86 86 89 90 86 84 79 78 74 70 61 58 58 60 66 69 71 74 70 65 54 50 50 52 54 56 58 55 56 55 53 52 49 44 32
49 55 62 66 71 75 82 81 78 87 87 86 87 82 82 79 68 64 65 63 61 65 69 72 73 66 62 51 48 53 55 56 60 63 61 54 60 53 50 50 47 36 25
51 57 61 64 69 74 74 76 79 85 83 86 85 80 77 73 69 67 68 66 67 70 73 73 70 61 49 48 55 58 59 64 62 63 63 67 62 55 48 47 46 33 23
50 53 56 60 63 65 68 75 79 82 87 83 80 78 75 75 75 77 77 74 77 80 79 69 59 49 50 59 66 65 67 65 67 71 75 66 61 63 54 43 36 25 22

GFSMA_prec_cthk_054.txt.gz
RH
64 66 67 65 62 66 60 61 61 60 51 44 43 43 42 44 49 47 39 37 35 39 41 40 38 33 32 33 31 30 31 31 31 31 29 26 25 25 25 24 21 19 18
68 65 65 62 60 64 66 65 63 53 49 46 44 43 42 43 48 52 46 40 40 45 45 46 43 40 39 41 41 40 40 41 40 38 35 32 29 29 29 26 24 22 22
70 67 66 65 61 60 64 65 64 57 51 49 46 48 49 50 48 39 42 46 44 49 48 48 45 44 43 43 46 48 48 47 46 44 42 37 34 33 32 29 27 26 25
75 72 71 67 65 65 66 67 65 65 59 52 50 49 45 42 37 38 39 42 51 53 51 45 46 49 48 48 51 52 54 57 57 52 48 39 37 37 37 35 33 30 30
82 76 72 69 67 71 70 68 66 65 62 58 52 45 46 47 43 37 39 43 49 49 50 45 46 49 50 53 56 58 61 62 61 61 54 41 41 40 39 37 36 34 34
83 79 78 75 75 75 74 73 73 69 65 60 60 49 46 46 38 37 40 46 51 43 45 47 54 54 53 57 61 66 67 64 61 51 49 45 44 42 42 41 41 39 37
85 82 82 80 79 80 81 80 81 78 74 66 61 58 46 45 43 46 50 57 50 48 50 51 59 64 63 61 58 58 58 58 49 51 50 48 47 46 45 45 45 42 39
88 81 80 79 79 81 81 80 80 80 79 72 62 64 59 53 48 53 64 64 51 50 56 57 64 60 60 62 60 51 47 47 49 50 50 50 50 49 48 50 46 45 43
90 85 80 83 81 82 81 81 83 82 80 71 66 62 57 55 64 64 63 58 54 51 50 51 50 51 58 59 58 53 48 47 48 50 53 53 51 52 53 52 51 50 47
89 87 83 83 82 84 83 83 80 77 80 71 58 59 59 63 70 71 67 64 65 68 69 68 64 64 63 58 61 56 52 50 49 51 52 53 53 55 56 58 57 53 51
86 84 84 82 80 80 77 80 77 76 77 76 72 60 61 65 67 67 68 71 73 76 78 82 86 79 70 66 59 54 58 55 52 54 55 56 55 59 61 62 61 59 59
80 77 78 77 82 79 76 78 76 73 71 68 69 72 67 66 66 66 66 70 75 80 93 97 91 90 80 77 69 66 59 61 58 58 59 60 57 57 60 61 62 61 63
65 69 70 70 70 70 71 74 83 71 65 64 67 75 72 70 73 76 85 84 92 94 94 95 96 91 91 86 80 84 77 61 60 61 56 58 61 60 61 63 63 65 69
57 61 63 64 64 65 67 67 65 63 58 54 59 64 71 69 67 70 80 91 95 98 98 97 97 94 92 91 89 81 75 68 67 59 54 62 67 62 67 69 67 65 67
48 50 54 58 58 59 61 63 61 60 61 62 59 61 65 67 71 76 84 94 95 97 92 96 96 95 98 87 89 81 65 70 67 63 59 60 64 67 68 68 67 68 65
49 51 53 60 63 61 58 58 58 59 63 66 67 69 71 76 79 83 88 94 96 96 99 98 98 97 95 84 79 76 71 63 64 63 62 61 58 59 64 68 67 65 61
58 60 61 62 67 66 70 73 73 69 67 70 75 74 75 82 90 90 95 96 98 96 98 98 89 91 87 76 64 70 79 67 66 62 63 59 58 61 60 58 52 49 47
57 57 57 59 66 74 71 72 74 73 71 66 67 66 73 89 95 98 97 97 94 94 91 91 88 79 69 80 67 73 64 67 65 65 63 61 56 49 48 46 46 47 47
55 57 55 56 62 68 78 73 75 85 85 73 76 81 86 94 88 92 93 94 96 96 89 85 80 74 69 73 65 70 69 67 66 68 64 55 44 44 47 49 50 50 50
46 46 45 48 55 62 72 77 79 81 87 80 82 85 89 82 79 83 88 92 90 88 84 81 71 69 64 65 66 69 66 66 66 64 54 46 43 47 51 51 52 56 60
44 46 46 47 52 57 66 81 83 80 79 84 85 85 83 81 83 85 86 87 86 82 77 74 69 65 63 63 66 66 65 67 61 52 47 48 49 53 56 61 65 66 65
43 44 44 48 51 57 59 70 80 86 87 82 85 88 84 88 87 87 87 87 86 81 79 73 71 67 64 63 67 67 66 58 50 49 49 51 57 65 69 71 70 67 65
50 47 43 46 50 57 62 73 81 85 88 91 92 91 89 93 93 93 89 91 84 84 79 71 67 69 69 69 68 64 59 54 54 54 57 62 68 68 71 69 71 66 62
52 52 48 49 53 61 67 74 79 82 85 87 89 90 90 92 94 91 90 88 86 84 75 72 74 75 77 71 63 59 57 55 57 63 69 70 72 70 71 74 70 64 61
57 55 54 52 54 59 66 69 72 77 82 83 85 84 84 91 90 87 98 86 93 81 77 80 83 84 79 70 65 60 60 65 70 74 78 75 76 75 72 71 71 66 62
63 61 61 57 56 58 61 65 71 75 78 80 83 86 87 90 91 89 84 86 78 82 81 88 88 78 71 68 67 64 62 75 84 82 80 79 82 83 70 69 68 66 62

GFSMA_prec_cthk_057.txt.gz
RH
72 72 74 70 65 63 58 54 65 64 62 59 55 53 54 57 53 50 46 41 37 41 38 36 29 28 29 31 33 31 30 30 30 29 29 30 28 28 26 25 23 22 20
79 77 83 72 66 69 66 62 70 64 59 57 55 55 56 56 57 53 47 44 41 43 40 39 34 34 35 38 36 38 41 42 41 40 38 38 37 34 32 31 28 26 24
81 84 80 77 70 73 72 72 69 63 56 54 54 53 52 53 51 59 52 48 47 41 41 45 46 41 42 36 37 42 44 47 49 47 45 45 44 41 36 32 30 29 27
85 83 79 75 73 74 73 73 68 67 63 55 55 52 52 53 54 53 58 57 45 44 44 49 49 48 40 40 41 42 45 49 51 54 54 53 50 48 43 34 32 32 30
89 80 71 73 70 69 71 72 71 72 70 65 57 55 52 55 51 50 51 44 45 46 42 44 49 42 46 44 42 43 48 55 58 59 57 55 51 41 38 37 35 35 34
85 76 72 76 71 70 71 72 73 71 69 64 60 57 55 53 46 45 43 41 43 41 52 56 49 44 48 48 46 44 46 49 53 55 55 47 43 45 42 39 38 38 37
83 78 81 80 73 75 76 77 74 73 72 69 68 60 59 51 49 48 47 43 45 54 57 56 53 54 53 52 48 47 46 47 48 46 43 43 44 43 43 43 42 41 41
85 84 82 82 81 80 84 83 80 80 78 74 68 66 67 60 49 48 48 46 56 58 60 55 57 59 59 49 50 51 47 49 48 45 44 42 44 45 44 45 46 45 46
88 83 85 89 84 85 88 86 84 82 80 78 74 75 73 68 68 54 53 54 58 65 66 63 63 61 61 64 61 61 62 59 50 51 47 43 42 44 46 44 43 47 50
85 87 88 89 88 85 85 86 82 81 82 83 73 70 67 68 79 82 69 63 66 70 71 69 66 68 72 71 77 80 71 66 61 58 52 50 55 52 47 49 48 48 50
86 89 91 86 84 83 82 83 81 78 76 76 79 75 63 58 58 58 67 79 77 76 74 73 78 73 75 81 89 93 86 79 74 63 59 64 52 51 50 50 52 56 59
91 91 92 84 79 82 82 80 81 77 74 75 76 76 78 78 73 72 72 70 73 76 71 74 75 78 84 92 95 96 94 90 84 80 79 70 60 55 51 50 55 59 62
74 78 78 80 76 77 78 81 82 85 84 78 81 77 75 79 81 77 78 76 74 70 68 67 81 90 93 95 95 95 95 96 92 88 81 70 65 59 54 52 53 56 57
59 64 69 70 68 69 70 71 76 84 77 79 82 81 79 71 70 77 75 76 71 67 64 66 72 82 89 94 96 95 97 95 91 86 74 62 60 56 52 53 55 55 55
52 53 56 58 60 60 60 63 64 68 68 66 68 70 61 56 59 65 68 72 69 72 71 73 81 82 90 97 94 97 98 97 92 85 81 73 65 61 56 55 56 56 58
51 52 52 55 57 59 66 67 64 63 63 60 62 61 60 60 65 72 73 72 77 82 83 90 91 93 94 95 95 97 95 90 86 75 67 69 68 62 57 54 55 57 59
55 60 63 65 66 66 69 74 74 74 73 73 73 72 67 68 69 76 77 80 84 87 91 91 90 90 92 93 95 97 91 83 74 76 73 71 67 60 58 56 56 55 49
60 61 63 61 59 60 62 65 69 72 72 74 78 81 80 79 80 76 75 76 86 92 94 94 91 93 95 91 97 83 83 75 70 70 63 62 61 58 58 55 47 42 39
55 58 61 58 57 56 57 59 60 65 74 77 77 78 86 86 83 75 77 86 91 84 89 93 95 88 92 83 85 78 70 69 64 65 64 62 60 58 55 45 40 39 39
55 55 56 53 53 52 50 52 57 59 66 74 76 81 79 93 88 81 86 90 88 83 87 89 90 89 87 82 75 76 72 70 68 69 64 60 58 52 45 39 38 41 48
55 53 53 50 49 50 48 49 51 55 59 67 75 83 83 84 81 89 94 90 86 91 94 93 89 95 88 90 87 79 74 72 69 68 69 64 55 49 46 43 43 53 65
57 56 50 50 50 46 43 45 52 55 59 63 74 88 92 95 93 96 97 93 89 91 96 93 95 95 90 89 88 87 75 74 72 74 68 64 61 55 53 53 63 71 74
55 52 53 55 54 53 50 45 49 57 63 69 74 83 90 93 97 96 97 97 96 96 97 96 98 98 97 96 94 85 84 77 78 76 72 65 61 55 61 73 78 77 74
51 55 58 59 59 60 59 55 58 63 68 71 75 82 88 91 93 96 95 97 97 93 90 99 94 98 98 92 93 89 85 79 81 76 65 62 66 71 78 78 78 79 79
56 61 65 65 65 64 64 66 67 64 64 69 74 75 81 85 88 89 93 95 94 88 94 86 87 87 88 89 84 82 79 75 78 78 75 76 82 81 80 79 80 83 81
60 60 61 64 68 71 71 71 76 81 78 70 71 75 79 80 81 84 84 86 88 88 90 90 98 96 91 80 83 80 74 79 76 81 86 89 89 88 78 82 84 84 84

GFSMA_prec_cthk_060.txt.gz
RH
90 89 77 75 63 63 51 45 48 53 51 60 60 54 54 52 40 37 37 40 35 35 30 28 26 25 26 29 28 30 32 30 30 30 29 29 30 31 32 30 29 27 25
92 93 77 75 73 62 50 52 60 61 60 62 59 57 60 54 45 41 39 43 41 38 35 33 33 30 31 31 35 38 40 37 38 38 36 36 36 37 37 37 35 33 29
91 80 80 75 75 63 56 57 68 63 63 60 58 56 54 58 52 49 45 45 44 41 42 37 35 36 38 40 42 43 38 39 40 43 46 47 46 45 44 43 42 37 30
91 85 78 82 73 70 61 68 68 64 61 60 56 53 53 55 60 53 50 48 45 41 44 41 41 45 44 45 40 37 37 39 41 46 51 53 52 52 48 44 36 33 32
85 91 86 86 72 86 71 70 69 64 65 64 56 55 55 52 52 52 52 50 48 48 45 39 40 45 47 49 44 42 38 41 43 45 49 50 51 49 42 38 38 34 34
90 98 93 96 89 91 80 70 67 68 71 68 67 58 56 54 50 47 50 54 51 45 38 42 46 51 51 50 46 44 43 40 41 43 43 44 44 43 42 40 39 37 37
87 90 90 87 79 78 72 72 69 71 71 70 71 70 60 57 53 49 49 48 47 46 47 44 50 52 56 58 52 46 43 47 48 47 44 45 45 43 42 40 40 41 43
89 87 90 79 81 78 73 73 75 76 73 72 71 70 63 57 56 53 50 46 44 48 56 56 55 56 63 62 57 55 55 58 57 56 55 52 50 48 45 42 42 51 44
88 88 84 77 78 76 79 82 79 76 75 74 73 69 69 67 66 65 61 53 53 53 53 59 64 61 63 62 60 63 65 64 63 66 64 62 58 53 48 47 54 51 46
87 87 85 82 79 78 80 86 85 81 80 77 76 73 72 73 81 88 75 68 62 58 61 63 66 69 69 68 64 62 62 69 78 83 81 73 67 62 60 64 58 46 45
86 85 86 84 81 81 83 93 87 82 80 80 83 77 72 69 69 73 78 86 83 70 67 69 72 72 72 71 69 70 75 75 83 89 88 83 77 78 78 75 67 60 57
86 84 84 85 87 84 83 88 84 78 75 73 80 85 78 72 66 63 63 68 69 72 72 73 76 72 70 68 68 74 79 85 87 91 89 87 86 82 81 73 71 64 58
77 75 73 76 77 81 87 84 81 76 76 79 81 86 80 77 79 84 85 81 77 79 85 78 71 70 67 66 67 72 79 85 88 93 94 94 93 88 78 75 74 65 59
71 69 67 68 73 81 81 79 75 72 75 76 81 92 87 83 81 81 79 81 77 77 76 74 71 67 67 72 78 83 86 92 91 94 95 97 94 86 84 85 79 73 64
59 64 61 62 68 73 75 67 62 65 68 72 74 77 78 80 81 81 79 70 66 66 73 70 68 70 80 82 86 89 91 94 96 95 94 97 86 82 79 77 73 70 67
56 57 55 59 65 71 70 63 65 70 68 70 77 78 74 72 75 74 69 66 70 79 77 76 76 79 79 86 89 90 90 94 96 95 92 93 89 84 74 75 74 72 65
51 54 55 58 63 73 73 69 68 71 72 73 76 76 76 76 78 79 79 78 76 77 76 78 75 78 87 87 88 90 89 92 97 90 85 81 78 73 67 70 64 63 59
51 53 57 60 61 59 60 60 62 64 65 68 71 75 78 80 80 84 86 88 89 85 84 76 78 86 81 88 94 89 92 89 84 84 78 68 68 62 65 67 65 61 59
47 50 52 53 57 56 55 54 55 55 57 60 61 63 70 78 81 83 83 87 93 93 92 82 82 82 81 80 91 85 91 90 83 79 79 76 72 72 72 70 66 66 60
43 47 50 55 57 57 57 55 54 52 52 53 56 58 59 67 77 83 89 88 95 95 89 85 94 92 86 85 90 90 93 94 92 91 84 82 82 81 76 71 70 63 57
49 51 51 53 55 55 54 53 53 55 54 54 55 55 57 63 68 75 88 87 92 88 93 97 95 89 88 86 90 94 93 98 97 99 93 88 80 75 76 75 70 63 60
54 53 52 54 55 53 50 48 52 54 54 54 54 57 60 63 66 72 82 89 93 98 96 92 98 90 92 91 93 91 90 99 90 97 98 94 88 81 76 73 69 67 65
60 58 57 57 57 56 53 55 60 63 64 61 59 58 62 64 70 77 85 90 94 96 93 95 93 92 96 98 88 93 98 96 91 98 91 89 79 81 76 70 68 69 76
60 61 61 59 61 56 57 60 65 67 68 69 70 68 67 63 67 76 82 83 84 89 88 88 89 92 90 91 96 92 86 88 95 97 96 91 85 73 71 76 81 84 83
66 64 63 66 63 61 61 67 71 73 74 74 74 76 78 79 77 75 77 79 78 82 81 87 87 86 84 93 88 87 86 90 94 94 91 85 81 76 77 81 84 84 82
69 67 66 63 64 66 67 68 70 72 75 79 79 79 81 85 86 87 87 87 89 89 85 85 98 91 94 94 89 95 88 95 94 91 87 84 84 87 80 81 84 85 85

GFSMA_prec_cthk_066.txt.gz
RH
85 71 59 58 51 47 50 50 47 55 71 60 50 46 49 43 42 33 30 28 26 24 24 24 24 25 26 25 24 27 27 26 28 27 29 29 27 28 28 29 30 31 31
80 76 65 68 62 57 56 53 54 59 65 58 52 51 51 48 46 38 33 30 30 29 29 29 29 31 30 30 28 30 32 33 33 34 33 32 33 34 35 35 36 36 35
85 82 81 79 79 72 61 51 50 55 55 56 60 57 55 52 49 42 35 35 31 31 34 36 34 34 34 32 33 34 36 35 37 38 36 38 39 39 41 43 42 42 42
82 74 79 79 79 73 60 49 49 53 52 59 65 62 63 56 54 41 41 35 35 35 40 40 37 37 36 35 38 39 39 40 39 39 38 34 34 35 36 39 41 41 41
87 80 84 77 69 64 57 46 52 51 53 63 68 67 62 60 58 48 46 42 40 42 43 43 40 40 38 38 41 42 43 44 43 38 37 36 36 36 38 36 37 38 39
89 87 86 80 73 68 63 55 51 54 57 63 71 69 66 64 61 57 52 50 50 50 46 45 42 43 43 43 42 47 48 41 40 44 47 41 41 38 40 38 44 45 45
90 90 87 83 76 76 68 64 60 61 64 70 73 75 70 67 62 60 56 54 52 51 48 46 43 48 50 49 43 44 46 49 55 55 55 51 49 50 50 52 54 54 49
94 92 91 86 82 78 72 71 68 67 72 76 72 74 77 71 63 59 56 53 52 49 47 44 42 49 55 51 48 47 48 55 59 60 58 57 55 57 58 59 61 65 64
95 94 92 86 83 85 79 80 78 73 77 79 76 78 78 75 73 68 60 54 51 50 49 46 46 49 56 51 53 52 54 57 61 64 65 64 64 62 61 66 73 78 78
97 95 93 91 90 90 90 89 82 73 76 79 82 82 83 85 76 67 64 60 57 55 55 54 53 48 46 53 61 60 60 60 63 64 64 64 61 61 69 76 80 84 85
96 96 95 97 95 94 94 95 92 86 75 77 82 83 87 87 78 72 70 66 65 68 68 67 65 57 57 61 61 63 67 65 71 69 68 67 67 72 79 83 87 91 92
97 98 97 96 97 95 94 96 92 90 79 82 80 86 84 80 77 75 73 71 74 78 76 73 74 71 67 63 68 73 75 78 74 71 71 73 78 84 86 88 91 93 95
94 94 96 97 96 97 93 93 92 88 82 75 76 81 78 79 76 73 73 73 70 69 67 65 63 63 65 71 79 82 78 77 74 71 72 80 83 88 92 90 93 95 95
84 88 90 93 96 92 90 90 88 82 75 77 81 82 78 77 77 80 81 83 85 82 78 77 80 80 81 80 76 75 70 67 73 76 78 81 87 88 90 90 90 94 95
71 71 72 72 76 77 75 74 73 72 73 75 80 82 81 83 81 82 87 84 83 76 74 76 74 80 83 82 80 78 75 76 81 82 83 85 87 87 88 91 94 93 95
60 61 60 60 62 63 65 66 69 71 67 72 76 76 76 77 78 79 79 79 78 76 72 75 79 83 83 83 82 81 80 81 84 88 89 89 90 88 89 91 90 90 90
52 53 55 57 57 57 59 60 61 62 62 68 69 71 72 74 76 77 78 80 81 81 78 77 77 80 80 81 81 85 89 91 91 92 94 92 88 88 85 89 92 88 88
50 51 51 51 54 56 60 62 63 63 64 64 68 71 71 77 77 77 75 75 75 76 78 74 74 75 79 78 80 85 88 91 91 92 94 93 90 87 88 91 94 97 94
50 51 52 53 54 57 59 60 60 61 61 60 61 61 59 66 62 63 64 61 61 63 64 65 63 70 69 71 80 83 87 92 95 91 88 93 93 95 90 92 93 97 98
45 48 51 52 53 54 54 54 57 59 62 60 59 57 56 58 57 61 64 63 63 64 61 61 60 60 68 66 73 80 81 89 92 91 91 95 96 96 96 96 94 94 99
41 45 47 48 51 53 52 55 57 58 59 60 61 59 57 54 55 56 62 62 64 64 62 63 65 64 67 66 72 76 79 88 87 93 93 90 94 95 93 99 88 97 98
65 55 50 49 51 50 51 56 59 59 61 63 61 61 64 62 59 59 64 70 74 75 72 75 71 67 67 66 68 74 77 79 78 77 93 80 84 95 87 92 87 94 96
74 72 71 69 65 58 53 55 59 62 63 64 63 65 68 65 64 66 73 79 81 79 78 79 76 75 75 80 82 79 80 79 78 87 90 77 86 91 93 98 98 98 97
72 71 70 71 71 69 68 68 70 70 69 67 68 69 71 73 71 70 75 79 81 80 82 85 90 88 88 87 88 91 92 84 92 96 99 91 93 95 96 96 98 97 97
67 68 67 71 74 72 71 75 77 83 82 81 80 76 75 78 81 80 83 87 89 90 84 86 89 91 90 91 94 93 93 96 98 98 98 99 97 98 98 97 97 96 94
59 66 67 70 73 73 76 79 81 87 86 86 85 83 80 83 89 92 88 90 92 94 90 84 86 88 92 93 91 93 98 98 98 96 97 97 98 98 97 97 96 97 97

GFSMA_prec_cthk_069.txt.gz
RH
91 91 89 72 59 59 55 56 58 55 58 61 58 53 52 47 40 31 30 33 31 31 28 23 22 21 22 22 24 22 22 22 23 23 25 26 26 27 28 29 30 30 31
92 91 87 69 56 55 59 55 58 58 55 56 59 57 54 49 43 36 32 31 33 33 27 25 25 27 28 31 30 28 27 27 28 29 29 29 30 30 32 32 33 34 36
97 91 80 62 57 54 47 45 55 60 56 72 73 62 53 52 48 42 34 33 34 31 28 28 30 34 34 33 33 31 31 30 32 33 32 35 37 33 34 34 37 39 39
95 84 72 55 55 61 53 50 57 65 64 65 62 64 55 55 54 48 39 37 36 34 32 34 36 37 37 38 35 37 36 35 34 34 36 33 33 37 36 36 36 35 35
91 85 76 67 63 65 62 61 63 67 65 60 60 68 65 61 62 51 44 41 40 40 38 37 38 40 40 38 37 38 38 41 38 38 36 41 44 42 38 35 35 36 35
93 90 83 75 72 75 75 70 64 71 65 61 63 68 74 65 66 59 50 44 45 45 42 41 42 43 42 40 39 42 43 44 40 41 45 49 51 52 46 45 47 46 47
95 90 87 81 77 75 74 71 67 66 60 63 64 70 77 78 72 69 58 53 52 51 49 49 49 45 46 46 47 49 47 43 47 53 54 55 56 58 57 53 54 56 56
95 94 92 89 80 73 70 63 63 62 61 61 67 71 76 79 75 73 70 63 61 59 57 55 51 47 47 48 51 51 54 55 50 53 56 59 61 60 61 60 59 57 59
96 98 97 94 87 81 77 71 69 64 57 63 68 71 79 79 77 76 69 64 64 60 58 54 48 44 43 47 52 59 65 58 53 56 56 60 62 64 63 62 63 60 62
93 97 95 97 90 84 85 85 78 73 68 68 73 79 80 75 76 76 72 71 66 58 56 53 50 48 46 45 51 59 60 60 62 59 58 62 62 65 67 68 68 70 75
96 95 97 98 96 91 88 91 89 81 74 71 72 83 84 77 82 80 83 76 70 65 60 56 56 58 57 53 52 53 58 60 64 63 64 65 70 71 69 72 78 83 84
97 98 98 97 97 95 93 91 92 89 84 83 78 78 74 81 82 87 83 79 75 73 74 75 77 74 73 68 65 61 58 65 70 70 71 75 76 73 72 82 83 88 92
96 97 98 97 97 96 95 96 96 96 94 92 81 75 84 84 83 85 84 83 80 77 76 74 76 72 67 68 68 65 69 71 77 79 78 77 74 73 76 81 86 91 91
94 94 94 97 98 96 94 92 95 96 98 94 90 82 84 83 82 81 80 82 78 76 73 70 70 69 71 75 77 80 81 81 79 78 77 73 71 77 82 83 86 89 88
80 88 91 94 97 97 95 95 95 96 96 93 91 87 87 81 82 80 82 82 80 80 79 80 81 79 77 76 76 80 81 81 80 78 77 74 75 80 84 85 88 87 85
66 69 74 76 78 82 86 89 90 91 91 91 91 83 78 77 80 85 87 87 83 84 81 81 80 78 78 80 82 84 83 82 81 82 82 85 87 90 90 89 88 86 86
56 58 60 61 64 65 68 75 78 79 77 77 78 76 72 76 76 80 80 79 77 79 80 76 77 79 78 79 80 80 80 81 80 81 84 88 90 91 91 93 92 88 86
55 57 59 59 59 60 60 59 61 63 63 63 65 70 69 72 70 77 79 80 81 81 83 80 75 72 73 74 74 74 76 76 78 79 84 88 90 93 94 89 91 92 92
58 60 60 60 59 60 61 61 62 63 64 66 68 69 68 73 71 74 76 76 75 73 74 72 66 64 59 59 61 61 61 66 67 73 80 82 85 89 90 87 89 91 94
49 53 58 61 62 63 60 60 60 61 61 62 65 63 62 62 61 63 65 64 63 65 65 66 66 65 64 61 56 55 58 62 64 71 73 78 81 89 90 92 92 90 93
58 56 52 51 55 58 58 58 59 59 59 59 61 61 62 61 60 59 60 58 60 61 62 62 62 63 62 63 61 60 58 60 61 66 67 70 77 80 88 84 93 98 99
80 75 65 59 57 53 49 53 57 58 60 62 62 61 61 63 62 62 64 64 64 66 67 66 66 68 67 66 69 66 67 69 68 70 78 79 84 79 81 79 95 90 89
86 85 83 82 75 68 66 64 62 61 60 61 62 62 64 64 63 64 64 68 72 75 73 72 71 71 72 74 77 77 75 79 80 85 91 84 87 93 99 86 90 99 96
76 79 79 80 79 76 75 75 80 83 85 81 76 70 71 70 71 73 72 71 73 79 82 79 77 77 78 78 81 83 84 86 87 86 97 88 90 93 97 97 97 99 99
60 66 70 72 71 73 77 80 83 86 86 85 87 90 90 87 82 82 83 78 75 77 78 84 85 81 83 85 88 90 88 94 91 91 87 90 94 91 98 98 96 98 98
32 38 43 48 56 64 71 73 77 81 82 85 86 90 89 85 87 91 95 94 92 90 89 88 91 91 87 85 83 87 89 98 96 97 98 99 98 96 96 97 97 96 97

GFSMA_prec_cthk_072.txt.gz
RH
93 90 94 94 94 75 73 63 57 51 50 54 56 64 59 60 36 34 37 38 35 35 33 32 28 24 22 22 21 20 20 20 20 20 21 23 24 24 25 26 26 28 30
88 90 93 95 91 81 77 72 59 49 49 57 56 63 71 48 41 40 36 37 35 35 34 32 27 26 26 26 27 27 28 28 26 26 26 28 27 27 28 31 32 33 33
90 91 95 95 86 75 70 62 61 54 52 52 60 63 65 51 53 41 36 33 35 33 31 28 28 28 32 33 33 34 34 32 31 31 31 31 31 30 29 32 31 31 32
95 94 96 96 83 67 63 64 65 64 62 60 65 56 64 63 56 47 39 35 34 32 32 30 32 35 35 36 37 37 37 35 34 34 33 32 29 32 34 34 31 29 30
96 96 96 91 83 65 64 69 57 62 59 60 59 69 71 67 57 53 45 41 40 36 35 36 37 37 38 40 41 41 40 38 38 37 34 34 37 40 40 40 40 37 35
97 98 98 92 74 59 72 69 64 64 64 66 63 66 66 71 62 61 51 46 45 43 40 39 39 40 41 43 44 44 45 44 42 38 39 38 45 48 47 49 50 50 45
98 98 90 85 65 59 69 69 71 71 68 70 63 71 63 76 77 68 58 54 49 49 46 45 44 43 44 46 47 48 49 49 44 47 46 47 50 50 52 54 57 57 54
98 97 91 84 71 72 71 75 77 81 77 77 76 71 69 73 74 79 74 65 57 60 56 54 53 49 50 51 52 54 53 54 52 52 49 49 52 54 56 55 57 57 57
94 93 95 93 83 79 77 77 80 84 79 82 72 66 65 69 72 82 84 76 71 68 64 64 59 58 57 53 51 52 54 55 57 60 63 62 54 53 54 59 59 60 63
97 98 97 95 94 85 81 75 75 74 75 69 69 66 64 69 69 75 76 77 72 71 69 65 61 59 57 51 45 50 52 55 60 66 68 63 59 60 63 61 65 66 69
96 97 98 96 96 94 87 76 80 68 77 74 68 63 63 70 73 78 73 75 71 71 64 65 62 57 55 55 56 52 50 52 61 68 64 63 64 69 67 69 71 73 73
97 95 94 99 97 95 90 83 79 79 82 78 72 69 70 73 76 82 78 81 81 75 73 73 65 64 67 67 67 64 64 61 64 63 63 65 69 73 72 74 75 73 74
92 95 97 97 96 97 96 86 89 88 87 87 85 83 79 77 83 82 81 85 88 81 81 80 81 83 82 83 78 76 75 70 67 64 70 72 76 80 80 79 80 77 76
89 94 96 97 97 97 97 95 90 93 93 91 88 91 91 85 85 83 86 90 87 83 84 81 79 76 76 75 68 67 68 70 72 76 79 80 82 82 83 83 80 79 82
80 90 94 99 96 98 98 97 96 94 94 93 95 94 94 91 90 90 86 87 86 85 81 80 79 80 82 84 84 81 81 83 84 85 87 87 85 83 83 86 86 89 90
70 73 80 89 94 97 98 98 97 95 96 95 95 97 96 95 94 93 90 88 85 82 80 83 82 84 88 91 90 87 83 81 83 84 84 84 85 85 86 85 86 88 89
54 60 65 69 74 77 82 87 91 90 89 87 89 90 92 92 94 92 87 84 80 80 80 80 83 85 86 83 83 83 81 79 78 78 79 81 83 84 80 81 81 84 89
51 53 54 54 57 63 67 66 69 72 74 76 78 79 79 81 77 78 79 75 72 76 81 78 75 76 80 81 81 81 77 71 70 69 71 74 75 73 72 75 81 81 83
50 53 54 55 57 57 57 59 60 62 63 64 66 67 68 70 66 69 71 72 72 74 75 77 75 75 71 67 66 66 63 63 63 63 62 59 57 61 62 66 71 80 80
49 49 52 55 55 57 59 61 61 61 62 63 64 63 65 66 64 68 68 69 70 72 69 71 71 68 65 61 60 57 54 55 58 61 60 59 60 63 65 68 71 74 75
69 64 60 56 54 54 57 60 62 61 60 60 61 61 63 64 65 65 67 66 68 68 68 69 68 65 64 64 60 58 57 57 60 63 61 63 67 70 73 76 79 82 85
85 83 84 85 82 73 65 61 60 61 63 65 64 62 63 64 64 64 66 69 72 74 74 74 72 73 69 69 71 72 69 68 64 67 67 67 68 70 76 79 82 92 93
76 78 80 83 84 87 87 88 86 84 81 78 72 67 63 63 65 66 68 72 75 78 77 77 76 75 75 78 82 81 79 75 74 77 78 75 76 79 80 82 85 89 91
60 67 72 74 76 78 78 81 83 85 87 85 86 87 88 86 84 84 83 79 76 78 79 82 84 84 82 79 83 85 87 91 85 80 78 83 82 86 89 84 86 90 90
38 43 45 49 54 58 60 67 73 78 80 82 88 93 94 92 93 92 95 94 93 97 93 94 94 92 83 84 90 94 94 95 94 94 92 92 90 89 86 97 93 92 91
31 32 33 32 32 34 36 39 44 51 60 68 78 80 84 83 87 94 96 97 98 98 94 97 99 98 93 91 93 98 100 99 99 98 97 99 98 98 97 94 98 98 94

GFSMA_prec_cthk_075.txt.gz
RH
82 87 93 94 97 96 90 66 65 55 47 43 48 42 42 38 43 49 49 41 40 37 33 32 27 23 21 23 21 19 19 19 18 17 18 18 20 21 22 23 24 25 25
86 90 95 93 97 95 87 65 64 63 55 57 49 45 48 50 48 56 42 41 41 37 35 32 30 27 26 24 24 24 25 27 25 24 24 24 24 25 25 26 26 27 29
94 97 96 96 97 96 80 72 69 66 61 58 53 54 60 60 59 55 38 44 42 39 36 34 31 32 32 28 30 31 32 33 31 31 30 27 27 27 27 27 27 28 29
97 94 92 94 98 96 87 82 84 66 59 55 58 59 66 67 62 43 42 45 42 41 38 34 32 33 34 35 34 36 37 37 36 35 34 30 29 27 27 28 29 30 29
95 93 93 96 98 94 90 82 76 69 63 63 58 59 64 66 65 52 48 44 44 43 41 36 33 35 38 37 39 39 40 41 41 40 37 34 33 32 34 35 36 37 38
98 94 97 98 98 97 80 75 69 71 72 62 60 61 63 68 73 76 56 46 46 44 42 43 42 41 39 41 41 41 43 45 46 45 42 40 41 42 42 44 44 46 48
99 99 97 99 98 95 78 66 67 67 69 65 65 66 70 79 79 77 62 51 48 47 47 46 46 44 43 43 43 44 46 50 51 48 46 46 47 51 51 48 51 52 52
98 98 98 99 95 91 76 67 69 66 66 64 69 73 74 76 74 73 74 58 51 48 49 49 51 49 47 48 51 50 51 54 55 53 55 53 54 56 54 52 52 52 53
99 99 98 97 94 88 68 66 71 76 73 70 70 71 72 71 68 68 77 77 69 62 58 54 54 55 52 58 55 52 58 58 59 60 61 59 58 58 60 60 59 52 53
94 99 99 95 92 81 65 66 73 77 79 83 85 77 76 75 72 70 73 72 75 76 72 70 67 67 67 65 58 52 55 58 59 60 58 60 64 63 64 64 61 58 62
96 94 92 91 91 83 74 72 70 78 83 84 81 83 79 66 63 61 66 69 75 77 77 70 69 66 70 63 56 52 53 54 57 62 57 59 64 67 67 62 63 66 68
97 97 96 95 93 89 82 78 79 78 78 81 82 81 74 67 64 62 64 67 72 76 79 74 67 69 64 62 60 60 63 67 60 53 53 61 64 64 67 65 67 72 74
90 96 98 97 96 97 95 88 87 85 75 80 76 78 80 79 76 71 75 76 78 79 79 83 78 75 73 68 68 72 75 74 73 67 64 65 65 66 70 73 74 79 82
83 92 96 97 99 98 96 97 90 85 84 81 77 84 84 86 82 85 80 86 80 80 83 84 81 79 79 80 83 85 81 78 74 72 72 70 72 75 78 80 82 83 83
69 86 94 94 96 97 97 98 96 88 87 87 88 92 88 88 87 88 87 92 89 85 83 85 84 83 82 81 77 77 76 75 72 71 72 75 77 80 84 87 88 87 86
64 69 83 94 96 97 98 98 98 94 88 91 92 90 90 92 93 91 91 91 93 91 87 85 86 85 83 81 79 80 80 82 83 83 82 82 84 86 87 86 83 82 83
59 63 67 72 80 91 91 94 97 97 93 89 90 90 88 90 89 86 89 94 93 96 93 88 83 83 81 79 80 82 85 86 86 86 86 86 84 79 76 75 76 78 78
50 54 55 56 58 63 67 69 69 72 76 79 83 83 82 86 85 87 90 91 90 93 88 83 82 80 79 77 77 80 80 82 84 81 77 79 80 77 75 73 70 69 69
52 52 53 53 53 52 54 55 58 60 63 68 71 73 75 76 76 78 77 75 79 78 78 74 65 73 74 75 74 71 69 70 69 68 71 71 70 68 68 66 66 64 62
54 55 55 56 57 57 58 59 59 60 61 63 64 65 66 67 69 71 71 71 71 73 74 76 76 67 69 67 69 63 62 64 62 62 58 58 61 61 62 66 68 67 66
68 65 64 60 58 57 58 58 58 60 63 64 65 66 65 64 64 66 70 69 71 73 74 74 74 71 68 66 64 65 64 60 59 63 61 64 63 67 69 69 70 71 72
80 82 83 83 84 84 78 79 77 71 63 59 57 59 59 61 61 65 69 72 75 78 77 76 74 75 74 74 74 75 74 70 64 72 72 72 75 72 69 70 73 77 76
78 77 77 78 79 79 81 82 82 84 85 85 85 82 77 76 76 74 71 71 71 72 77 79 78 79 79 80 82 81 80 79 75 81 86 85 80 82 82 81 75 74 79
63 64 64 66 67 70 73 76 78 81 84 86 88 89 86 85 87 88 87 88 87 90 93 94 93 93 92 87 88 90 92 91 89 89 90 95 90 90 90 85 81 83 88
46 46 46 46 46 48 49 50 52 56 59 64 69 73 73 76 81 85 86 88 94 99 95 94 94 94 92 90 95 97 98 99 98 97 94 96 96 97 94 97 96 95 97
38 36 35 35 35 35 36 35 32 31 33 35 37 40 44 50 54 60 67 74 84 89 93 94 95 97 97 94 96 93 96 97 99 97 98 98 98 99 98 98 98 97 97

GFSMA_prec_cthk_078.txt.gz
RH
70 69 77 83 92 98 96 96 82 81 76 58 52 53 47 45 45 45 43 48 48 45 36 35 31 27 23 23 20 19 18 18 16 16 15 16 17 17 18 19 20 21 22
68 75 80 91 93 96 97 94 82 82 69 53 53 53 47 39 38 49 49 44 45 46 38 36 34 32 29 26 22 20 19 19 19 20 21 22 22 22 22 23 23 24 25
71 78 87 91 94 97 98 95 81 75 68 60 53 52 49 43 39 51 60 56 55 44 41 40 35 33 32 26 24 23 24 27 27 28 28 28 30 30 27 26 26 27 28
76 84 92 91 94 98 98 95 76 79 75 67 64 59 55 51 46 50 62 70 58 43 43 40 37 35 35 29 28 31 33 33 32 32 33 34 35 33 29 28 26 27 28
84 94 96 98 96 99 98 97 77 73 77 69 65 67 62 60 57 53 60 66 52 52 43 40 38 38 38 40 36 37 38 37 37 38 39 37 37 35 30 30 33 34 34
91 97 98 91 92 98 95 89 79 82 79 70 67 67 65 65 68 62 60 59 61 53 51 48 40 42 42 42 39 40 41 40 40 41 43 42 43 41 39 40 44 44 42
99 96 98 93 98 97 96 94 91 86 80 68 66 69 66 67 67 65 66 63 68 51 51 50 51 50 44 41 41 41 41 44 44 45 45 45 46 47 50 50 54 55 52
95 98 95 99 99 98 97 94 88 79 78 70 69 69 66 68 67 64 73 76 70 56 51 49 52 52 52 49 43 42 43 46 51 50 49 48 50 52 55 59 58 59 54
93 97 99 98 99 98 98 93 79 73 71 77 73 68 69 67 70 73 74 70 65 58 55 52 50 51 51 51 49 45 46 51 60 56 55 57 59 62 60 59 59 57 56
93 98 97 98 98 98 98 91 74 73 73 70 70 74 77 74 75 74 70 68 67 73 74 64 66 60 60 57 56 52 50 54 61 59 60 62 63 66 61 62 64 63 62
94 98 98 98 98 97 95 89 76 74 75 77 75 76 76 77 74 75 72 69 70 66 65 68 74 73 66 66 62 64 63 63 58 52 60 63 66 65 61 61 63 63 63
96 97 99 98 97 95 94 84 71 69 77 79 80 87 86 89 88 81 81 79 67 63 62 67 72 75 70 66 67 66 67 63 58 55 59 61 59 57 51 59 60 61 63
88 94 96 96 95 96 95 90 75 75 79 81 89 92 91 87 88 85 73 75 73 69 71 68 71 75 78 75 72 72 70 63 63 69 75 73 63 56 55 61 62 63 65
72 89 95 99 97 95 95 91 82 82 82 83 87 88 86 83 85 81 82 81 76 77 79 77 75 74 78 82 81 78 76 71 71 73 77 72 71 70 71 68 67 70 71
66 75 91 98 98 99 95 94 90 87 86 88 89 85 84 85 86 85 89 89 87 87 88 88 88 85 84 85 80 79 75 72 78 87 80 77 73 70 69 68 70 73 76
60 65 77 90 93 96 98 95 96 95 94 91 88 83 88 88 92 90 88 89 90 88 89 88 90 89 86 84 80 78 76 78 76 75 75 73 72 75 77 77 77 77 78
58 62 65 73 86 94 97 96 94 95 97 96 91 86 87 87 89 89 88 86 89 90 88 91 90 89 89 86 84 80 79 77 75 74 74 76 81 80 80 79 77 75 74
54 58 60 64 69 73 77 79 79 80 82 85 85 83 83 86 83 79 78 78 79 81 81 79 87 90 90 89 84 81 77 78 76 76 74 78 79 82 83 80 76 73 69
53 54 54 55 55 57 60 64 66 67 68 69 70 70 69 68 69 72 73 75 77 78 80 80 75 80 81 80 80 77 76 76 79 76 76 74 73 71 69 67 65 64 63
57 58 58 59 59 59 59 60 61 60 60 61 65 64 65 66 67 69 74 72 74 74 73 74 68 68 72 72 76 75 75 79 78 80 75 69 66 63 61 63 61 59 58
65 65 64 65 68 64 61 62 62 61 62 64 63 65 67 69 70 71 74 74 77 78 78 77 75 69 67 69 69 71 74 72 70 74 72 72 71 70 66 61 60 62 66
73 74 76 78 77 75 76 77 79 79 79 79 80 78 75 73 72 72 73 74 75 77 76 75 76 79 74 70 73 76 77 78 74 79 79 81 76 74 70 69 69 70 74
85 83 81 80 79 77 78 81 84 86 89 90 89 87 90 92 92 90 91 92 92 90 88 91 90 89 90 89 88 85 83 85 85 86 88 91 85 85 82 80 76 81 88
83 82 80 78 77 75 74 74 76 81 83 81 80 80 81 82 83 85 89 92 96 94 95 98 98 98 96 93 95 96 97 97 94 92 94 97 95 94 95 97 95 95 93
62 62 61 60 56 53 50 49 49 52 52 53 52 52 54 55 56 57 59 63 69 72 72 77 82 85 88 89 98 97 98 99 98 98 98 99 98 98 98 98 97 97 93
50 47 47 47 47 44 37 35 34 35 35 36 38 38 37 36 35 35 35 36 42 44 47 49 55 59 61 62 65 69 70 79 89 90 98 98 97 98 97 98 96 97 97

GFSMA_prec_cthk_081.txt.gz
RH
55 62 70 68 72 77 90 93 93 94 91 85 75 57 58 55 53 51 45 40 38 44 41 40 39 37 28 25 23 21 19 17 17 15 13 14 15 15 15 16 17 18 19
52 59 66 71 77 80 94 97 98 95 91 87 80 62 58 56 45 46 44 39 41 49 42 44 39 36 31 30 28 21 19 18 18 17 17 17 18 19 19 20 21 21 22
58 67 69 68 73 86 95 98 99 96 91 88 76 63 57 50 44 44 47 43 45 50 42 42 47 37 34 31 25 20 19 19 20 21 22 22 23 24 24 26 28 25 26
60 65 70 70 84 91 97 99 97 96 93 85 66 56 53 48 46 42 47 48 46 47 47 52 45 38 34 33 26 22 23 24 27 29 30 29 28 30 31 32 33 29 28
65 77 76 78 90 91 96 99 97 96 93 79 69 58 51 51 48 47 54 58 52 54 52 54 44 39 36 34 31 30 29 32 35 34 33 33 35 36 36 35 35 32 32
65 77 80 89 92 93 97 98 96 95 84 84 74 65 60 59 54 54 57 62 60 54 51 53 44 37 35 36 33 35 38 37 38 39 38 38 37 39 40 39 40 41 45
68 75 84 94 97 95 97 98 96 93 85 79 78 72 68 67 66 63 64 59 60 56 62 60 50 40 33 31 35 38 40 40 41 41 42 43 42 44 45 45 48 52 55
80 80 89 96 98 96 96 97 97 94 85 86 79 76 75 72 70 62 61 63 61 66 65 68 59 47 44 38 37 39 41 41 42 44 45 45 47 50 47 51 54 58 58
87 91 92 94 95 97 98 97 95 92 92 91 78 68 69 67 66 64 66 63 64 66 75 70 62 51 49 51 45 39 41 42 44 46 49 50 54 54 52 55 61 64 61
93 92 93 92 95 98 99 92 94 95 94 86 83 76 70 66 66 67 67 68 72 71 67 67 64 54 51 54 54 55 51 51 52 53 54 56 58 63 61 63 68 68 63
88 92 94 95 97 96 97 97 96 95 92 84 76 77 76 73 76 77 73 70 69 68 64 66 68 68 70 68 65 62 61 60 60 57 56 58 64 65 63 64 67 67 57
90 93 98 99 99 98 98 98 94 91 89 85 74 71 78 80 79 75 78 79 72 69 68 66 64 67 73 74 74 71 68 65 64 63 62 63 62 58 56 60 64 58 57
79 90 96 98 98 99 98 98 96 93 84 83 80 73 74 77 82 83 87 86 89 92 81 74 66 59 62 65 68 70 73 71 69 68 69 70 64 65 67 67 67 58 52
69 82 94 97 97 98 98 97 96 87 83 77 77 79 83 84 87 92 95 95 89 88 84 85 74 67 68 69 71 73 73 78 78 74 72 71 73 73 71 71 67 65 63
63 70 91 95 98 98 97 97 96 94 83 77 82 89 88 87 94 93 91 90 95 86 85 82 85 85 81 76 75 77 78 80 82 79 75 77 75 73 71 71 69 68 68
60 67 82 94 97 98 97 97 96 96 90 85 87 90 89 90 92 93 92 89 91 91 91 88 89 88 92 88 84 87 81 79 77 74 71 68 69 68 70 74 72 71 73
57 61 68 84 94 96 98 98 97 95 94 90 91 90 92 93 93 90 92 91 90 92 88 89 90 90 89 89 87 89 86 81 71 68 67 66 68 68 69 70 72 75 79
53 60 61 66 76 91 96 97 99 96 95 92 94 96 96 94 91 86 84 82 83 83 78 75 77 79 81 85 84 85 85 82 79 77 71 72 73 72 72 74 75 78 79
51 57 58 60 64 70 75 76 82 79 72 73 78 76 77 77 74 75 71 71 70 72 72 72 65 69 67 70 70 71 74 79 76 74 76 73 69 69 71 73 76 74 71
55 58 60 59 60 59 59 61 63 67 70 68 67 66 69 69 70 71 69 68 68 70 73 74 70 69 72 68 71 69 71 72 71 74 75 74 76 79 76 74 74 74 73
59 60 63 63 63 64 64 64 65 66 66 69 71 68 68 74 75 74 74 75 80 84 81 83 85 83 80 80 79 75 74 73 75 80 81 86 88 87 83 80 78 77 77
67 71 74 71 71 73 74 75 77 78 80 78 76 77 81 79 80 81 81 80 81 83 83 84 84 85 85 85 85 84 84 87 85 89 82 86 85 86 86 84 84 85 85
80 78 80 80 80 81 82 82 82 82 81 81 83 86 90 90 91 91 94 96 93 93 92 93 91 92 93 95 96 98 99 97 96 94 94 91 90 94 93 91 90 92 93
94 92 92 90 87 85 85 85 83 83 83 84 83 82 83 83 84 85 87 87 86 85 85 85 85 85 83 83 86 87 87 86 88 93 93 95 95 96 98 98 98 94 97
98 94 90 91 88 85 80 75 71 70 69 65 63 63 60 58 56 54 53 52 51 51 51 50 52 52 54 55 57 57 60 60 62 63 65 67 67 71 76 76 73 82 86
74 69 64 64 61 59 54 50 47 47 46 44 43 43 42 43 42 39 37 36 36 39 40 42 44 44 45 45 45 49 51 52 53 53 54 56 57 58 58 58 62 68 69

GFSMA_prec_cthk_084.txt.gz
RH
58 57 53 55 59 67 68 80 83 87 90 87 88 76 70 68 59 63 49 46 37 32 32 33 38 36 36 31 29 22 18 15 14 16 16 15 13 14 15 14 15 16 16
51 62 54 54 63 65 68 77 86 93 94 92 90 83 72 72 55 58 50 43 35 35 32 37 41 41 43 31 29 21 18 18 17 17 17 16 16 16 17 17 18 20 21
47 53 59 58 61 68 76 77 92 95 97 96 95 84 73 63 59 47 43 37 36 35 34 40 44 41 33 39 34 22 21 19 17 18 19 20 21 22 23 23 24 25 26
47 58 60 64 68 70 68 82 94 97 98 96 93 86 80 64 52 46 45 36 32 34 39 41 43 41 43 39 34 24 23 20 20 21 22 25 27 29 29 29 30 31 31
44 53 58 64 66 66 73 90 94 98 99 98 93 87 78 57 48 52 46 40 33 36 42 43 45 41 43 41 33 23 22 22 23 25 29 31 32 33 34 33 34 36 35
46 53 62 66 75 73 82 93 97 99 97 98 93 84 71 55 48 46 49 45 44 43 46 47 44 42 40 41 33 25 25 27 30 33 34 36 37 37 36 36 36 39 37
50 61 66 67 78 78 87 94 98 95 96 97 90 82 68 60 51 46 49 46 48 58 52 40 39 40 40 43 35 29 30 33 36 37 38 38 39 39 40 43 45 50 46
58 70 75 77 76 86 94 94 98 96 98 95 87 83 75 75 65 60 59 56 62 60 56 49 53 51 42 44 36 35 36 36 37 38 39 41 42 41 42 43 48 57 52
68 75 78 83 85 92 99 95 98 97 94 96 87 81 82 81 71 67 62 60 63 62 58 58 63 62 60 54 49 42 41 41 41 39 40 44 46 46 45 47 51 57 62
75 87 92 90 90 91 96 97 98 97 94 97 93 85 82 74 69 68 64 59 59 60 60 63 66 65 66 62 54 48 46 46 47 45 52 56 55 53 52 53 56 64 66
67 83 86 91 93 94 97 98 98 98 96 94 95 92 82 77 71 63 62 60 61 63 64 67 67 66 65 65 67 59 54 55 59 60 62 58 58 63 65 63 69 74 70
65 79 87 91 94 94 95 97 99 97 96 96 94 91 90 80 80 77 74 76 71 68 62 59 60 64 65 69 70 70 71 69 70 70 68 67 67 66 64 61 64 67 64
62 71 85 91 96 96 97 96 98 97 96 95 93 93 90 81 79 80 92 86 85 84 84 80 72 64 62 61 59 57 61 63 65 66 69 71 72 69 68 67 70 73 70
59 65 76 89 97 99 99 97 97 98 97 96 94 91 84 76 76 79 80 81 89 89 91 88 90 86 75 66 61 61 62 65 69 72 74 77 78 76 74 76 80 78 74
55 65 69 93 95 96 97 98 98 98 96 94 95 90 86 83 79 79 81 87 89 90 88 89 89 86 84 79 76 74 72 71 73 77 78 80 82 84 78 77 78 76 72
52 60 67 88 94 98 99 99 97 96 97 96 95 92 87 86 88 88 89 91 94 93 91 91 88 91 92 91 92 87 87 86 85 85 83 79 76 75 72 72 72 71 73
49 56 62 77 91 97 98 97 98 97 96 95 95 85 84 88 89 92 94 93 94 94 90 89 88 86 82 83 87 85 86 88 84 86 87 84 77 72 69 70 71 72 73
48 52 60 64 84 93 98 97 97 96 98 99 96 93 92 94 94 95 95 94 95 93 86 78 79 79 80 79 77 75 74 74 72 73 76 80 77 74 73 72 72 72 75
47 52 56 60 63 75 92 95 97 98 96 96 95 94 95 94 96 95 89 87 82 80 76 69 67 72 67 68 69 69 69 68 69 69 70 70 72 76 77 75 71 72 73
51 54 56 58 59 62 67 76 81 85 87 80 75 72 74 74 70 73 71 71 69 72 70 67 63 65 69 73 78 77 77 81 78 79 80 84 84 82 84 84 86 87 88
55 55 58 59 62 62 62 64 66 66 71 67 76 71 65 66 67 67 67 68 70 71 73 75 75 75 77 79 81 87 88 91 94 92 92 96 97 96 94 92 93 93 92
62 63 63 64 63 65 67 67 67 66 69 70 68 76 79 77 78 78 79 78 81 84 84 85 87 87 86 86 88 90 92 93 96 94 97 97 98 97 96 96 98 99 98
71 70 70 73 74 74 74 75 77 79 82 83 87 89 85 87 88 88 85 86 88 88 90 90 90 90 90 88 86 86 87 82 83 78 84 86 85 85 79 87 81 87 83
92 89 81 78 77 80 83 87 88 87 86 86 85 85 86 86 86 87 87 86 86 85 83 84 82 77 75 69 67 62 60 61 60 59 58 58 58 59 60 58 59 60 60
96 97 96 95 95 94 94 94 92 91 88 88 87 86 84 82 75 74 75 70 63 59 56 54 51 48 46 46 46 45 45 45 45 44 44 45 47 47 45 47 48 47 46
96 97 98 97 98 97 94 91 85 77 70 64 61 57 50 47 45 42 40 39 39 40 41 41 42 41 41 40 38 39 40 41 42 43 44 43 42 42 41 42 43 43 44

GFSMA_prec_cthk_087.txt.gz
RH
39 45 55 62 55 57 63 72 76 88 84 88 80 76 75 75 69 51 53 45 41 36 30 28 31 37 35 34 35 31 26 23 20 14 12 14 15 14 13 14 15 15 15
37 44 51 60 57 54 63 68 69 75 87 90 90 80 79 76 75 58 55 49 44 41 34 26 33 35 34 37 36 33 29 20 17 14 14 16 16 16 16 17 19 20 20
34 40 47 50 61 58 63 69 69 73 82 94 96 91 83 77 78 65 54 53 46 43 36 33 36 36 41 41 34 28 29 21 19 18 17 17 18 19 21 22 25 25 27
30 37 45 50 62 65 69 71 75 82 87 95 98 96 89 84 74 66 53 46 46 39 37 35 36 41 45 43 38 29 28 23 22 20 18 19 21 22 24 27 29 30 30
31 35 42 51 60 69 76 77 75 76 89 97 98 97 92 87 80 66 56 45 40 34 32 32 37 39 41 42 35 32 29 23 21 20 21 22 25 29 31 32 32 32 31
32 36 45 50 62 73 70 77 70 83 94 98 98 95 95 88 76 69 51 45 40 35 34 36 42 45 41 39 33 30 28 25 23 23 26 30 32 33 34 35 35 36 36
32 40 49 56 61 70 71 73 77 91 97 98 98 97 94 89 75 59 51 46 44 40 36 40 49 47 38 39 33 30 29 28 29 31 34 36 37 37 38 38 38 39 40
37 53 57 64 72 72 73 75 86 93 99 97 97 96 95 89 74 59 55 53 46 44 43 50 51 44 42 38 39 37 35 35 38 40 41 40 41 40 41 42 42 43 45
44 55 62 71 72 78 80 77 85 93 97 97 97 92 93 86 76 64 54 53 51 51 56 59 52 47 51 48 46 46 41 42 46 47 46 45 44 46 47 47 47 48 50
50 57 69 80 83 84 86 85 87 96 96 96 97 95 90 83 73 74 65 64 60 56 59 57 55 56 58 57 56 54 53 46 46 49 49 48 49 54 59 60 58 58 59
48 56 68 75 84 91 91 91 96 98 95 96 95 95 91 87 86 81 74 68 62 60 58 56 57 61 62 58 57 57 59 55 50 50 52 55 61 65 67 70 71 71 72
50 58 69 79 90 89 93 95 98 97 99 97 95 96 93 89 87 84 75 68 62 62 60 62 62 64 65 62 64 67 70 71 70 70 69 71 72 71 70 71 72 72 72
51 56 68 77 88 95 95 96 97 99 98 96 95 95 95 90 90 88 80 75 75 74 73 73 71 67 66 66 65 65 67 66 61 62 64 69 70 72 74 76 76 76 73
50 56 63 74 87 96 98 98 99 99 98 98 98 97 95 91 92 88 82 80 87 88 82 88 91 88 88 85 70 68 67 64 64 67 69 74 75 78 81 83 84 83 80
49 55 62 74 84 96 98 99 98 97 99 98 98 98 95 95 94 89 86 89 90 85 87 95 93 94 93 91 89 87 81 72 73 75 77 79 80 82 84 84 82 84 80
49 54 61 72 81 95 97 99 99 98 98 97 96 97 96 97 94 89 89 87 84 81 85 87 91 93 93 94 97 95 96 93 90 88 90 88 89 90 88 87 81 78 78
49 53 58 66 75 96 98 98 98 98 99 98 98 97 98 97 94 91 90 89 88 86 86 88 91 92 93 92 91 92 89 90 89 86 87 85 84 87 86 86 86 80 76
48 49 54 60 66 92 98 98 98 98 97 98 97 97 98 96 94 93 91 88 89 89 90 91 93 95 93 86 81 80 82 82 78 76 76 76 76 77 78 78 79 78 76
52 49 53 58 63 72 96 98 98 98 97 98 98 96 97 95 94 89 91 95 96 96 96 93 90 82 77 75 74 71 69 70 73 75 76 76 75 75 75 73 75 76 79
52 52 53 56 59 63 75 96 98 99 98 98 98 98 99 98 97 96 96 98 96 88 82 74 71 70 70 70 68 70 74 82 89 86 89 91 90 89 87 86 88 93 96
54 53 56 58 60 63 67 72 88 96 98 98 96 87 77 74 72 77 71 70 68 67 69 68 68 69 73 77 80 81 82 86 86 95 94 93 95 96 93 91 93 97 94
70 62 62 62 63 65 67 67 70 71 70 70 75 71 75 70 67 69 68 67 72 74 75 76 79 81 83 87 91 91 93 90 93 90 89 93 92 85 82 74 80 82 76
78 76 71 69 70 70 71 71 70 69 66 69 67 76 73 73 81 83 80 82 83 85 88 88 89 88 88 88 88 86 85 86 86 73 79 69 63 57 66 59 64 58 53
82 83 84 78 76 76 79 81 80 77 77 79 81 80 82 90 93 91 86 87 87 84 87 92 85 88 82 78 74 73 65 58 54 52 50 51 48 47 46 44 43 45 44
87 88 89 89 90 84 81 85 85 85 85 88 90 92 92 88 87 87 81 79 88 84 85 74 71 62 54 48 45 44 44 41 40 40 40 40 40 41 40 40 40 39 38
95 97 98 97 98 97 94 96 97 98 97 94 93 93 94 91 87 82 71 58 51 47 44 42 42 41 43 43 41 40 40 40 38 36 35 35 35 36 36 36 36 36 36

GFSMA_prec_cthk_090.txt.gz
RH
33 39 44 48 59 67 63 60 71 81 91 94 93 86 76 74 71 69 58 52 49 42 41 36 33 32 35 37 35 35 32 30 27 28 24 16 12 16 21 17 15 14 15
33 35 39 43 52 63 60 58 63 70 83 92 94 88 80 75 74 77 63 47 43 43 40 34 33 33 36 35 38 35 35 31 29 21 17 13 14 17 15 15 16 18 20
34 34 35 38 46 53 62 62 68 74 75 90 96 94 90 81 79 77 68 53 53 44 40 36 36 36 37 38 37 36 35 33 28 20 17 17 17 17 17 19 20 22 24
37 32 32 34 42 49 61 65 68 70 77 88 93 95 95 92 84 83 80 56 54 51 42 42 39 37 37 37 39 39 34 28 26 21 21 19 18 19 21 23 25 28 29
38 26 24 31 38 49 62 72 77 75 76 80 85 94 97 95 89 86 81 64 51 49 43 45 42 36 37 39 39 36 31 27 29 24 22 21 21 22 24 28 32 33 32
38 26 25 28 37 47 60 67 80 85 82 83 89 96 99 96 93 91 83 65 55 45 38 37 36 34 37 38 41 37 34 30 30 24 22 23 24 28 32 35 36 37 37
36 26 26 30 37 47 63 79 79 79 81 79 94 98 99 97 95 92 85 64 56 44 37 34 32 33 41 45 41 34 37 34 30 27 26 28 33 37 38 40 41 41 41
36 26 28 39 48 58 64 72 76 73 75 84 97 98 98 98 96 92 85 67 52 46 43 35 35 41 48 42 38 38 36 40 34 31 33 37 41 42 44 45 45 45 44
32 27 33 49 58 64 72 83 76 78 79 89 95 98 97 93 94 93 85 65 53 49 48 41 39 48 45 44 45 42 44 42 39 42 46 48 49 52 50 49 49 53 54
32 29 41 55 62 72 81 85 80 81 77 87 96 97 95 93 92 94 85 63 53 51 49 48 53 53 49 50 49 48 47 50 47 49 52 53 50 52 53 56 54 58 61
29 33 42 52 58 68 78 87 85 82 80 88 93 97 95 95 92 80 70 64 56 53 52 55 58 57 57 54 60 54 53 55 55 51 52 53 52 54 58 60 64 70 73
31 36 43 52 66 73 82 84 89 92 86 96 93 95 94 94 92 85 77 77 71 65 64 60 57 60 59 62 62 63 61 62 66 66 61 61 64 66 71 72 72 73 73
32 41 49 56 67 73 80 92 91 93 92 97 97 96 94 94 91 91 90 87 78 73 72 65 61 61 63 64 63 62 65 69 69 71 73 70 70 69 73 74 76 77 79
40 45 51 56 63 70 83 95 97 96 98 97 97 96 96 95 92 90 89 87 83 83 76 69 72 71 71 68 68 71 72 72 72 69 69 64 67 71 75 78 82 84 84
44 47 51 56 63 74 86 97 99 99 97 99 99 97 97 96 94 92 93 90 88 91 84 83 83 87 94 93 93 90 87 81 76 75 72 72 73 76 80 84 87 89 88
47 47 50 56 62 71 85 97 98 98 99 98 98 98 98 97 94 94 95 93 92 88 92 91 91 93 92 92 92 92 91 94 91 85 85 86 89 90 90 91 90 88 87
51 50 50 54 62 65 84 97 98 98 99 98 99 98 98 98 95 96 97 94 95 93 94 91 87 89 92 93 94 95 94 92 93 93 93 94 91 88 88 82 81 83 84
54 54 53 52 58 64 82 99 99 99 98 99 99 98 99 98 97 98 98 96 93 93 90 90 86 86 88 94 95 96 94 92 91 91 88 84 80 76 73 72 72 75 78
58 56 55 54 54 64 72 96 98 97 98 98 98 98 98 98 98 98 97 95 95 93 91 87 89 91 94 96 95 92 83 77 78 76 73 70 72 76 78 81 81 86 87
62 57 56 56 55 61 69 80 98 96 98 98 99 98 98 98 98 96 95 96 94 92 90 94 96 96 92 92 82 78 72 75 72 74 75 81 84 83 87 92 94 96 97
71 64 57 59 58 61 64 73 86 98 98 97 97 97 98 97 97 97 98 97 97 98 98 97 84 75 73 76 76 75 79 79 78 82 81 87 87 95 96 93 92 92 93
78 75 69 62 64 65 67 70 73 78 96 98 99 96 98 98 96 95 92 87 83 77 75 70 70 69 70 73 77 81 85 87 92 92 95 96 91 91 89 82 89 78 70
83 81 78 74 70 71 72 74 72 74 70 73 83 82 85 83 82 76 71 70 70 70 72 72 74 77 82 86 92 94 95 94 94 91 95 88 80 73 65 62 54 56 55
85 85 83 81 79 81 79 78 79 78 76 72 70 70 71 71 79 76 73 76 80 83 84 87 91 89 90 93 92 85 86 81 75 68 65 60 54 51 48 47 47 44 41
93 88 85 86 88 90 90 86 83 82 85 84 80 78 74 78 78 82 91 92 97 95 89 85 84 90 84 80 69 62 52 47 45 45 45 44 43 44 43 41 40 38 36
93 94 91 89 90 93 93 93 96 94 87 88 91 94 92 90 92 93 94 91 91 94 94 81 59 50 47 43 40 39 38 39 41 42 40 38 36 35 35 37 37 37 34

GFSMA_prec_cthk_093.txt.gz
RH
31 29 30 33 39 46 55 62 65 60 66 84 95 97 96 88 84 81 74 67 71 79 62 58 46 40 31 38 40 39 38 38 34 28 30 26 26 19 23 25 29 32 23
35 33 33 32 37 44 51 59 68 58 63 82 95 97 97 91 85 77 73 58 60 68 56 48 47 41 34 37 36 36 37 36 35 31 24 24 17 13 14 17 18 20 20
37 36 35 33 36 43 48 56 63 62 64 72 91 97 97 93 81 81 77 75 55 47 43 42 41 38 34 36 38 38 37 34 35 34 28 19 15 14 17 18 19 19 21
39 38 37 31 34 38 45 52 57 64 65 73 78 94 97 95 88 84 83 83 62 51 49 45 42 39 38 39 38 37 36 37 37 32 27 21 19 18 17 18 21 23 26
42 41 38 31 30 35 41 46 56 62 69 73 80 96 95 94 93 90 89 88 71 58 54 47 40 42 41 40 38 37 38 39 35 31 25 25 22 21 21 22 24 28 31
46 44 41 31 28 33 37 42 56 64 75 77 81 89 91 96 96 96 94 89 80 60 52 50 45 45 41 42 40 38 40 39 34 33 33 27 23 23 24 27 32 35 36
49 46 44 32 26 31 37 43 56 64 74 86 89 91 93 91 93 98 96 90 85 70 53 45 43 41 37 37 38 38 40 41 39 34 33 29 25 25 29 36 38 40 40
50 49 45 31 29 33 42 50 54 69 82 87 88 91 87 96 97 99 96 93 90 73 56 43 39 37 36 35 38 42 42 43 40 37 31 29 29 35 39 40 42 44 47
52 51 41 31 34 41 50 54 61 71 77 86 86 82 87 95 98 99 97 96 92 74 59 50 41 40 38 37 44 41 41 41 41 37 36 35 38 43 44 45 47 53 54
52 55 38 33 37 50 58 63 68 74 80 78 75 81 89 94 97 97 99 96 92 73 60 52 40 36 40 47 48 40 39 42 41 41 40 44 48 49 52 51 52 56 52
54 56 35 33 41 54 61 66 75 82 87 87 83 81 89 94 98 96 96 97 94 75 65 54 47 42 46 51 48 42 45 46 46 48 54 57 56 54 54 56 57 59 62
57 48 33 33 43 50 61 69 75 79 86 85 83 78 89 93 97 97 96 95 91 73 58 58 53 50 55 56 54 56 58 56 55 56 58 58 59 56 58 61 64 66 69
57 39 30 37 44 49 59 71 74 83 88 86 86 84 91 97 96 96 94 91 83 72 67 65 58 56 59 60 62 65 65 64 61 65 71 71 70 67 67 71 73 75 74
54 36 34 39 46 57 62 68 76 84 90 91 94 81 98 98 97 96 92 91 90 82 76 68 65 66 66 62 64 65 67 69 68 68 73 74 75 74 72 70 72 76 79
54 39 40 43 50 55 63 71 83 88 96 98 94 91 96 96 97 96 94 92 90 90 85 78 75 76 70 71 67 67 68 70 71 73 74 74 72 73 74 74 76 81 82
54 43 42 45 50 55 63 71 81 94 97 97 97 95 98 98 98 96 97 93 91 92 91 88 88 82 82 84 86 91 92 90 89 92 86 79 77 80 80 82 83 82 86
56 46 44 46 49 54 62 67 85 98 99 99 99 97 98 98 98 96 95 94 98 94 92 96 93 93 91 91 95 95 93 94 93 93 89 87 85 85 85 87 86 83 81
57 47 45 51 51 52 59 65 86 97 98 98 97 98 98 99 98 97 96 95 98 94 92 91 95 96 94 93 90 92 93 94 94 91 92 93 92 86 86 86 81 77 74
58 48 46 54 55 55 61 67 83 98 99 98 98 99 98 97 99 98 97 98 96 98 95 94 97 96 94 93 90 88 92 93 95 93 91 83 84 84 81 76 77 76 83
67 54 50 53 56 56 62 65 74 96 98 98 98 98 99 98 98 97 97 97 98 97 95 96 95 94 93 93 92 96 96 93 92 82 72 74 74 74 77 83 86 82 85
72 67 59 55 56 58 62 66 74 87 96 98 99 98 99 97 99 98 98 98 98 98 98 97 97 97 97 99 98 96 89 80 78 79 71 78 80 82 81 85 91 92 96
78 70 64 65 59 57 64 67 70 74 88 97 97 97 99 98 97 99 98 98 98 98 96 97 98 98 97 96 88 77 73 80 78 79 80 89 92 94 92 94 95 94 90
86 83 76 70 73 67 66 69 73 76 75 79 96 98 99 98 99 99 98 98 99 98 98 95 86 83 82 76 73 74 75 78 83 90 93 94 95 95 95 91 82 70 60
92 90 87 79 77 77 78 79 79 79 82 82 74 78 82 84 88 92 94 93 85 80 74 70 70 71 75 81 86 88 93 96 98 97 96 90 90 77 64 55 52 48 44
95 94 93 88 83 85 83 82 85 87 86 88 91 91 89 82 77 81 78 78 80 77 75 79 85 89 89 90 86 89 96 93 86 80 72 58 52 48 45 44 45 44 41
95 95 94 92 93 88 89 88 86 89 91 90 90 90 88 87 87 89 86 87 85 89 92 93 93 93 94 96 88 64 57 50 45 43 42 41 40 39 43 46 47 44 42

GFSMA_prec_cthk_096.txt.gz
RH
29 30 31 33 34 40 44 44 49 58 63 65 63 72 85 90 94 95 86 89 79 90 83 80 71 63 64 42 41 44 45 42 39 35 32 26 24 21 19 26 25 16 20
33 32 33 33 33 39 42 46 50 51 60 65 60 69 90 93 97 95 83 88 80 85 93 79 68 59 50 35 36 43 38 37 37 35 29 27 31 28 23 15 21 26 28
36 36 38 36 34 39 41 45 47 47 56 62 62 78 92 92 97 96 90 83 78 75 84 82 64 53 52 36 38 40 37 37 36 32 31 30 25 19 14 15 16 19 18
39 38 41 39 37 36 39 42 46 49 52 60 68 81 87 95 97 96 94 80 73 63 59 60 43 42 47 35 35 38 38 38 36 35 33 29 26 20 17 15 17 20 22
42 41 43 43 41 36 36 41 44 49 51 60 68 74 79 91 98 96 94 90 88 82 62 45 44 43 43 36 33 35 37 36 35 41 40 32 25 23 21 19 19 22 26
46 47 47 47 46 39 33 37 43 47 49 61 68 77 80 89 93 95 94 93 94 89 73 58 51 43 41 41 37 36 36 39 38 40 40 34 27 25 24 24 25 28 32
54 51 52 50 49 38 32 37 42 42 55 62 73 82 82 90 98 97 95 95 95 94 80 64 56 46 43 39 39 39 40 39 37 37 39 36 29 30 26 25 29 34 36
58 56 55 52 50 37 36 35 40 46 54 64 71 83 85 85 91 91 95 97 97 94 87 70 57 47 45 39 42 39 39 38 38 40 42 33 27 28 29 31 36 39 41
67 61 59 53 51 40 35 33 41 54 61 66 75 85 89 85 88 89 91 97 98 93 89 79 57 46 42 38 38 37 37 39 42 43 42 32 30 31 34 38 41 43 44
68 62 61 55 51 38 33 34 51 60 64 69 78 84 83 81 84 80 94 97 98 94 91 85 65 52 41 36 34 38 39 42 41 41 42 38 37 42 46 48 48 50 53
69 67 62 54 51 38 34 39 54 64 70 77 81 84 86 83 72 81 91 99 98 95 94 85 68 57 45 40 37 41 45 44 38 36 39 46 50 52 52 53 53 55 56
76 67 61 56 51 37 34 41 55 65 72 79 83 86 89 86 80 77 88 96 97 96 93 85 71 62 48 39 41 45 48 46 44 43 47 48 54 59 62 62 62 61 60
68 60 58 58 45 33 36 42 54 64 72 76 80 83 88 87 81 78 93 97 97 98 95 85 75 67 59 51 49 53 56 57 54 57 59 59 59 61 65 62 62 63 66
61 55 57 59 41 35 40 49 52 61 70 74 80 84 84 83 84 86 95 98 98 98 94 90 74 70 64 62 56 61 62 65 64 64 65 65 65 69 71 74 72 73 75
57 54 58 55 43 41 45 48 56 62 68 78 82 87 87 86 89 89 98 97 93 92 93 87 81 67 64 67 67 67 65 70 73 68 69 66 65 71 74 75 75 75 76
55 56 60 55 46 43 47 52 58 64 68 77 87 94 96 94 88 94 98 97 94 93 91 86 80 75 70 71 74 75 72 74 70 70 69 72 73 73 74 75 76 78 79
58 60 65 59 49 49 48 52 58 63 69 75 93 96 96 94 95 95 98 98 96 94 93 89 85 87 85 85 85 78 81 85 87 89 86 87 89 88 81 78 78 80 80
64 67 70 62 50 52 52 53 53 61 68 89 99 96 97 96 93 94 98 97 95 94 92 95 93 93 93 92 94 97 96 94 95 94 94 94 92 90 88 87 86 81 79
70 72 72 64 54 53 49 52 53 61 73 96 95 96 97 97 96 98 98 96 95 96 96 98 95 96 94 92 96 97 95 95 94 93 95 94 95 94 93 88 82 79 78
74 73 76 64 56 52 49 54 55 59 78 95 98 97 96 97 97 98 98 97 96 97 97 97 96 94 96 99 99 98 97 95 93 92 96 96 96 93 81 75 77 76 77
77 77 77 65 57 52 50 53 58 66 78 95 97 98 97 99 98 99 98 98 97 96 98 97 97 98 96 96 96 96 96 97 95 97 96 88 85 81 71 78 76 78 85
81 81 81 74 63 58 56 55 60 68 78 87 98 99 98 98 99 98 98 99 98 98 98 98 97 97 98 98 98 98 98 98 97 97 86 80 75 79 80 80 87 91 95
86 83 82 81 69 63 61 60 60 67 72 75 80 96 98 98 99 98 98 98 99 98 98 98 98 98 98 98 97 98 98 97 90 81 76 77 79 84 89 91 93 95 95
87 85 86 85 83 79 73 74 75 73 72 79 78 80 95 96 98 98 98 98 98 98 98 99 98 99 98 89 85 89 84 80 76 80 87 88 89 93 95 96 94 82 73
89 88 90 89 90 89 87 83 84 84 83 88 88 89 78 79 85 90 90 90 97 98 97 98 97 85 77 76 77 80 83 88 90 90 91 94 95 95 90 75 60 49 45
98 94 97 95 92 90 91 88 90 89 87 85 89 91 90 95 98 95 93 96 85 92 90 82 88 80 79 81 86 88 92 92 94 97 91 77 72 62 51 46 44 44 43

GFSMA_prec_cthk_099.txt.gz
RH
27 27 28 29 31 34 38 42 46 55 54 58 64 64 63 62 73 85 83 91 97 97 85 76 68 69 71 75 67 45 44 46 45 41 37 34 27 25 21 14 17 20 19
31 29 30 30 31 35 38 42 47 50 53 57 59 65 65 65 72 89 88 95 99 97 94 80 76 72 69 75 67 44 43 44 41 41 36 32 25 29 27 22 22 23 26
34 34 33 34 35 35 38 43 45 49 53 57 55 61 65 70 79 95 92 98 99 97 95 94 89 82 71 72 52 35 41 43 35 37 36 31 29 27 26 21 20 15 20
43 37 38 38 38 37 37 40 45 48 53 54 57 55 66 77 79 92 98 99 98 94 88 94 95 79 68 66 48 34 38 39 34 38 37 30 30 27 22 21 18 15 16
49 44 41 42 40 40 39 37 40 43 49 54 58 54 67 76 79 92 99 98 98 91 79 80 82 75 58 47 49 33 33 33 35 36 35 34 33 27 25 22 19 18 19
53 50 43 45 43 42 42 39 38 39 45 55 56 57 66 72 81 93 98 99 97 92 78 68 63 55 45 45 43 36 30 30 36 36 36 37 32 31 26 22 22 22 24
63 54 45 49 46 44 45 44 38 40 43 53 53 58 65 73 90 87 98 94 97 97 95 88 73 57 50 46 43 40 32 34 35 39 39 38 34 29 26 25 29 29 29
67 60 52 53 51 48 49 48 36 38 44 51 45 56 70 78 86 88 93 95 95 98 98 97 87 67 59 51 44 42 32 35 37 42 38 38 36 33 29 27 29 33 33
73 75 62 65 59 53 50 50 38 38 44 47 47 63 66 73 85 94 93 94 92 98 98 98 92 77 62 55 47 43 38 40 41 37 37 39 39 32 28 29 32 36 38
69 82 83 81 70 60 56 52 38 39 48 52 57 62 68 75 88 87 90 91 96 97 96 97 93 88 71 52 48 44 39 36 41 43 39 40 37 32 31 34 41 43 43
62 65 64 98 83 68 60 50 40 41 45 57 63 67 69 82 86 84 83 91 83 88 96 96 95 90 78 50 48 44 37 31 34 47 45 42 40 33 36 46 51 53 54
59 65 70 76 82 70 61 48 41 44 49 60 66 71 74 83 82 83 83 83 76 87 93 98 96 91 82 57 53 45 39 36 40 40 41 44 51 45 50 56 58 61 61
58 74 74 80 74 68 59 50 40 44 50 60 67 72 81 88 89 92 88 83 82 81 91 98 97 94 87 72 59 51 49 45 41 42 42 47 49 52 60 63 65 63 66
72 78 77 76 76 64 62 50 39 50 50 59 66 68 75 82 89 89 94 89 85 84 91 93 95 93 86 73 61 58 55 50 47 47 50 59 59 62 59 60 62 65 67
71 73 80 78 73 66 63 46 43 48 54 61 61 68 74 80 83 85 86 83 86 88 97 98 97 93 87 78 70 69 60 60 60 61 63 64 66 68 65 66 69 73 75
86 93 87 78 68 66 60 46 44 51 51 56 61 68 73 77 81 85 83 84 87 95 98 97 97 93 91 83 79 71 68 70 68 69 69 71 71 67 65 65 69 71 74
80 91 90 76 66 66 56 47 48 50 53 58 63 67 72 77 91 94 91 87 86 97 97 96 95 93 87 84 80 78 78 74 69 71 72 76 71 67 71 72 70 77 78
76 94 83 72 71 70 59 53 53 53 55 57 63 68 72 83 96 93 93 98 91 97 97 96 94 91 91 87 83 82 79 77 76 76 82 84 81 90 91 92 92 89 85
78 89 77 74 73 72 62 52 54 57 56 56 62 66 83 96 98 96 95 93 94 98 97 97 95 93 91 94 89 86 85 85 85 91 94 95 97 96 96 96 95 94 95
79 90 75 73 73 72 61 56 55 56 53 61 66 79 89 97 96 96 94 95 99 98 97 97 96 94 93 92 90 91 92 94 95 97 95 96 95 96 97 98 98 98 94
89 85 75 76 78 74 64 56 55 55 58 64 70 85 92 97 97 99 97 97 98 97 97 96 96 98 95 94 93 92 94 95 96 98 97 97 97 97 98 98 95 89 83
97 84 78 77 77 73 66 60 57 54 59 67 70 87 96 97 98 98 99 98 98 98 97 97 97 98 97 95 96 97 98 98 98 98 97 98 98 98 97 91 79 80 81
98 90 82 79 79 74 74 69 62 58 61 68 70 73 92 96 98 98 98 99 98 99 99 97 98 98 98 97 97 97 97 98 98 98 98 98 99 98 96 84 79 81 86
98 94 83 80 80 80 81 77 73 69 65 68 72 71 77 91 97 98 98 99 98 98 98 98 98 98 98 98 97 98 98 98 98 98 98 98 95 85 79 80 83 89 92
99 94 87 86 85 87 88 89 86 80 78 80 77 85 81 78 77 92 98 96 96 99 97 98 99 98 99 99 98 98 98 93 85 83 82 78 80 82 87 90 91 94 96
98 98 97 91 88 89 91 95 94 91 87 87 83 83 85 86 85 85 87 95 96 94 94 96 97 98 98 96 97 95 91 86 77 81 82 87 91 93 95 96 90 79 65

GFSMA_prec_cthk_102.txt.gz
RH
42 41 39 35 41 43 38 37 36 38 43 52 60 60 63 63 64 59 61 72 84 87 94 98 86 79 73 72 69 70 51 46 46 45 42 36 33 29 27 25 20 15 14
44 40 38 33 40 43 38 37 35 39 44 53 57 57 59 67 63 59 64 70 80 89 93 98 89 83 74 76 80 78 61 47 44 45 43 39 34 30 25 26 23 21 22
43 42 41 37 36 43 42 39 39 38 44 46 53 52 55 58 57 62 69 72 83 85 93 99 94 78 75 73 74 77 67 44 44 45 39 38 32 28 26 25 24 22 22
42 43 44 42 41 40 42 41 41 38 42 45 54 52 54 55 57 66 69 77 84 88 96 99 97 88 77 76 75 79 66 40 40 39 36 37 34 28 26 23 23 22 18
43 47 49 48 46 47 46 44 43 39 39 43 50 51 51 53 59 67 70 77 79 92 99 97 94 91 91 82 75 80 53 33 36 36 33 37 32 26 25 26 24 22 19
47 54 54 53 50 51 50 47 47 43 38 42 45 45 54 56 62 63 67 88 90 94 98 99 94 88 90 79 69 64 54 36 33 32 32 33 30 25 26 27 26 22 21
51 58 60 62 57 53 52 49 49 47 41 40 44 43 60 55 60 63 70 90 96 98 99 98 86 80 82 75 60 47 44 37 32 29 30 36 33 28 27 27 27 26 26
56 60 61 69 63 59 57 54 52 52 47 41 42 48 56 52 58 65 79 90 97 98 99 95 94 90 79 67 50 45 44 42 34 28 31 37 37 31 28 26 29 27 28
62 58 65 76 73 66 63 61 56 58 52 40 42 45 58 50 60 70 77 84 93 91 95 98 95 94 86 75 60 48 43 43 37 32 33 37 41 36 28 29 30 28 31
63 62 68 72 77 72 67 67 62 62 57 44 45 47 57 55 66 69 80 88 94 89 93 94 98 97 94 90 73 54 49 44 38 36 35 40 39 38 30 30 31 31 37
58 61 57 67 92 76 70 71 65 66 62 49 40 44 58 60 70 72 82 93 93 90 92 95 98 97 97 94 89 66 50 47 42 46 36 37 40 39 32 31 32 34 43
56 62 66 66 68 60 62 74 69 71 64 51 42 47 65 66 74 73 90 92 93 89 95 86 88 97 96 95 93 86 57 49 45 44 43 42 37 41 38 36 42 45 51
60 62 60 61 59 67 70 69 65 76 58 50 42 48 64 71 79 78 88 88 87 88 86 81 77 93 90 93 94 84 62 51 48 45 41 44 44 42 41 50 57 56 58
59 62 61 57 64 76 80 69 69 70 59 50 46 52 65 72 78 85 92 89 91 91 84 80 77 77 89 95 91 83 66 56 58 50 38 38 41 43 41 53 60 62 65
65 65 65 66 74 84 74 76 77 67 58 45 52 56 62 69 72 78 86 90 91 89 89 84 78 79 86 95 94 89 83 72 64 60 48 46 42 46 50 58 63 65 65
64 62 64 71 81 91 95 94 82 66 58 47 53 58 60 68 70 75 79 83 86 89 85 82 80 82 92 94 95 91 76 72 68 63 56 58 59 59 59 66 71 69 65
63 64 71 84 89 98 95 93 79 69 53 46 59 56 57 63 69 73 76 79 83 84 85 85 84 92 98 96 94 96 87 79 70 75 63 71 66 62 62 69 73 68 66
77 76 78 81 85 92 92 79 81 66 48 52 55 58 62 66 65 70 76 78 87 91 89 86 89 98 97 95 96 96 93 85 79 75 77 79 70 70 70 75 79 73 77
83 80 81 78 77 97 92 78 77 63 57 57 61 61 58 61 62 66 74 90 89 97 97 91 90 98 96 96 96 94 91 89 80 78 83 81 78 75 79 86 88 92 96
86 84 83 78 80 87 80 78 79 68 60 58 61 59 55 59 62 74 92 97 96 97 97 98 92 98 96 96 97 94 90 89 88 85 84 82 84 87 93 98 98 96 98
85 85 81 82 82 81 76 80 79 67 62 57 56 59 61 67 73 88 98 97 97 98 98 98 95 99 97 96 96 97 95 90 90 89 90 90 95 99 98 97 97 97 98
95 94 91 91 84 81 78 82 78 69 59 56 57 61 66 71 81 96 96 99 99 98 98 96 98 96 97 96 94 92 95 93 95 94 97 98 96 98 98 98 98 98 99
94 93 93 95 90 86 83 82 75 69 63 59 60 64 70 72 80 96 97 99 99 98 97 99 99 97 97 95 94 94 95 96 95 99 99 97 98 98 98 98 98 98 98
98 98 98 97 98 87 82 81 77 73 69 66 62 66 71 74 74 86 97 98 99 99 98 98 97 97 98 98 99 98 97 99 99 99 98 98 98 98 98 98 98 99 98
98 98 98 99 94 89 87 82 79 78 75 71 72 72 77 81 81 77 87 96 98 98 98 97 98 97 98 99 99 98 98 98 98 97 97 98 98 97 98 97 94 89 85
99 99 98 98 98 96 90 87 84 87 87 85 83 81 81 85 86 87 85 84 94 97 98 98 98 98 98 98 98 98 99 98 99 98 98 98 95 92 85 80 80 83 85

GFSMA_prec_cthk_105.txt.gz
RH
48 49 51 54 49 47 45 44 42 41 42 46 54 54 57 65 65 63 66 63 61 62 81 94 97 94 94 87 73 66 62 54 45 47 49 45 36 30 30 29 24 20 18
44 45 50 52 52 52 47 48 50 51 42 43 50 57 57 60 58 57 66 64 59 63 81 91 94 97 95 79 72 68 64 66 47 45 45 43 37 33 29 27 25 24 19
44 47 45 46 48 55 51 50 48 50 51 46 48 50 50 51 56 54 58 63 63 70 76 94 91 87 93 79 73 74 79 78 53 45 45 44 39 33 29 26 23 21 23
41 44 48 47 47 48 49 51 53 50 50 47 45 48 50 54 54 54 53 61 65 70 81 88 93 96 96 85 77 81 84 79 59 45 44 42 37 34 29 26 22 22 22
51 43 46 44 47 50 47 50 51 52 52 49 45 44 46 55 55 51 51 57 66 68 75 85 90 92 98 92 79 80 82 78 67 42 43 36 35 33 29 24 22 24 25
62 57 51 49 47 55 51 50 51 52 52 51 48 41 42 48 46 44 49 59 64 67 76 85 86 89 98 96 87 78 80 81 65 39 35 33 34 34 29 25 24 25 26
72 69 65 60 54 54 58 56 53 54 54 52 51 42 42 44 43 47 50 61 58 64 82 87 88 89 97 94 89 85 77 84 63 35 33 31 32 34 33 28 25 24 24
69 79 73 71 58 58 62 65 56 58 61 58 55 48 43 43 39 45 46 51 61 69 90 94 98 97 97 93 90 79 70 63 46 39 32 28 30 32 34 31 28 25 25
51 74 68 82 60 59 60 69 62 59 63 60 56 54 47 43 40 44 45 50 62 72 88 93 98 98 98 89 85 78 68 50 45 41 33 30 27 30 34 35 29 26 27
53 53 62 88 64 62 65 74 72 67 67 59 56 55 47 47 41 45 49 56 65 73 81 94 95 98 98 96 92 86 69 49 47 45 37 32 29 32 33 32 31 26 27
44 49 53 65 76 72 70 79 88 78 71 64 53 55 49 48 45 49 55 60 66 75 86 90 93 96 98 99 99 93 79 62 49 46 43 36 36 34 35 33 30 27 27
44 51 57 61 67 78 73 70 73 87 77 67 61 59 50 45 43 50 60 67 72 80 87 88 89 91 94 97 97 98 93 83 59 51 50 42 40 37 36 39 36 30 31
49 52 63 58 65 80 69 63 58 95 89 76 66 62 51 44 45 54 69 72 69 81 86 90 91 90 90 94 97 97 97 95 82 54 55 53 47 40 36 36 37 33 32
53 63 71 63 68 79 73 77 69 77 79 80 74 65 56 43 41 59 72 78 75 80 86 84 89 87 86 84 90 95 90 93 91 75 62 55 55 47 40 36 39 39 39
61 70 75 70 75 78 80 73 71 79 81 82 76 69 49 43 46 58 76 78 80 84 81 90 86 86 83 79 79 83 90 95 88 76 62 57 60 58 46 37 42 43 46
71 76 79 71 71 78 77 72 78 87 97 86 74 62 50 43 55 59 69 73 77 82 98 91 87 87 86 83 82 82 83 86 86 85 74 63 60 61 48 43 51 49 55
80 84 78 77 71 71 70 71 81 95 93 83 71 56 45 46 57 59 67 70 72 77 79 87 89 89 85 82 85 89 84 88 93 91 87 75 67 61 50 52 58 63 58
82 84 73 70 68 68 71 79 83 86 91 82 71 57 44 54 58 63 65 64 69 73 77 79 84 83 86 88 92 87 94 95 89 89 85 76 67 63 62 63 67 68 65
81 88 77 75 72 71 75 80 80 91 85 88 71 58 43 58 53 57 62 62 66 71 76 83 82 90 92 91 91 97 97 98 97 92 90 79 71 76 65 76 73 72 75
84 88 90 84 78 82 83 82 86 92 94 85 69 52 54 56 59 60 56 67 68 70 75 87 87 94 96 95 93 96 98 98 98 96 92 87 80 80 74 86 79 75 77
93 93 92 91 86 84 81 79 79 88 79 78 71 58 59 61 62 60 61 63 71 80 91 97 96 94 97 96 94 95 98 99 98 97 95 91 89 81 85 85 81 82 90
99 94 94 91 87 82 81 78 84 81 78 79 69 59 66 59 59 62 69 76 83 90 99 98 98 99 97 98 95 97 98 99 98 96 95 92 88 88 90 84 88 93 98
98 98 96 93 91 84 84 86 82 79 80 81 71 64 60 63 66 70 72 78 95 98 98 98 97 99 99 98 98 97 98 98 95 94 92 90 91 93 94 93 95 98 98
95 96 97 98 95 93 95 93 91 86 82 84 72 66 63 66 71 72 73 73 94 98 99 98 97 98 99 99 97 97 97 97 98 98 98 98 97 98 97 98 98 98 98
93 98 97 98 95 95 95 98 97 91 84 82 74 73 73 76 73 74 76 74 83 96 98 99 99 99 99 99 99 99 98 99 98 98 98 99 98 99 98 98 99 99 99
95 97 99 98 98 98 99 97 98 94 85 82 77 77 76 80 82 82 82 81 83 86 96 98 98 98 98 99 98 98 98 98 98 98 98 99 99 99 98 98 99 98 96

GFSMA_prec_cthk_111.txt.gz
RH
47 43 38 36 35 35 36 36 36 37 36 35 35 31 31 34 37 42 50 57 72 74 65 64 61 63 59 65 80 92 89 71 62 61 59 52 53 49 39 32 29 25 20
56 51 42 40 38 36 38 39 38 39 37 38 38 39 38 40 42 44 48 57 62 69 63 57 58 59 57 73 88 92 96 76 64 61 60 52 44 52 43 33 29 25 23
67 57 46 44 41 40 42 46 45 41 41 41 41 44 45 46 44 44 46 49 53 54 57 55 50 55 58 77 92 91 97 86 67 63 60 53 44 46 43 35 29 27 25
85 68 56 51 47 46 44 47 50 47 46 46 43 42 43 46 46 46 45 49 52 54 55 54 45 48 58 70 90 92 98 93 73 65 62 58 46 44 42 39 33 29 26
79 76 69 60 57 52 51 46 48 50 50 50 46 46 45 46 45 46 45 47 47 50 55 59 52 43 51 61 74 91 96 95 84 70 70 71 53 47 45 43 38 32 28
65 72 77 63 64 60 53 51 47 49 51 52 54 51 49 47 49 48 49 44 43 41 44 46 47 43 50 58 62 78 87 96 92 76 80 79 66 47 46 43 42 36 29
55 61 65 71 70 61 59 60 58 55 59 62 64 63 53 51 53 52 51 46 42 39 40 38 40 45 49 58 60 74 83 98 92 86 87 84 73 45 46 42 40 38 31
35 40 40 50 62 68 74 68 72 76 70 70 76 71 69 58 51 53 53 51 46 43 39 37 41 40 45 51 58 62 73 88 92 93 89 89 81 52 46 42 36 37 34
19 28 34 41 41 46 61 76 92 95 93 89 85 80 76 61 54 56 54 54 52 44 41 40 40 40 42 50 62 71 76 90 97 94 90 88 77 61 44 37 32 33 36
20 25 30 38 46 47 56 63 82 91 89 83 93 93 78 63 56 54 54 56 55 49 42 41 43 45 47 57 69 80 88 92 97 96 88 87 84 73 49 34 29 31 32
26 25 29 36 44 52 62 52 52 60 68 68 71 81 84 72 65 52 54 58 57 51 47 42 45 53 54 61 71 91 96 95 99 96 91 86 86 66 46 34 31 29 32
29 29 31 41 36 51 71 59 56 57 57 58 67 70 69 73 68 59 57 61 62 55 50 44 48 57 62 66 82 94 99 97 97 94 93 83 70 60 44 34 32 31 31
32 31 34 44 48 53 78 95 77 72 67 71 63 76 80 76 70 66 65 66 70 63 53 46 49 57 68 74 87 96 95 96 95 94 94 86 75 59 46 42 35 34 34
42 41 41 44 51 54 66 73 80 81 70 63 60 77 77 74 77 67 63 71 73 68 56 47 48 62 70 77 84 92 95 98 96 97 98 96 87 69 49 50 43 38 38
51 50 45 42 44 49 66 82 93 79 68 67 72 70 73 78 70 72 66 70 70 69 57 47 48 72 76 75 83 87 90 92 95 96 96 97 90 78 69 57 57 51 46
61 60 54 50 47 59 82 89 85 77 63 60 82 73 86 86 81 76 77 81 77 71 63 51 47 66 79 75 81 90 90 94 95 95 98 99 95 94 93 91 66 58 53
64 67 74 72 57 70 89 88 71 64 64 76 87 77 77 79 85 82 78 89 88 80 69 55 53 68 77 78 84 95 90 93 96 97 96 96 94 96 96 97 93 73 60
67 69 77 83 77 81 89 88 72 65 70 88 76 84 89 87 96 85 80 86 93 83 77 57 57 70 79 81 84 84 91 90 93 93 92 93 92 90 83 83 87 86 72
70 73 75 76 81 86 94 86 81 80 82 78 88 94 78 93 85 86 88 89 86 86 72 61 64 70 76 74 75 81 84 88 85 93 90 90 93 92 87 83 88 85 80
74 79 80 79 83 91 97 98 91 90 82 85 91 92 81 79 74 81 87 93 91 85 64 63 67 67 68 70 71 71 73 78 81 87 86 94 94 95 90 84 89 97 90
79 84 85 89 92 95 93 91 92 97 87 86 91 79 84 86 85 93 98 96 84 67 61 70 65 61 64 64 65 66 73 77 78 82 92 91 91 91 91 93 96 97 95
86 89 91 91 90 90 93 93 86 94 88 86 77 87 87 88 92 95 94 83 73 69 66 69 63 64 62 61 65 68 75 87 97 92 93 96 97 90 95 96 98 98 98
91 93 94 96 93 93 96 90 89 90 92 91 94 90 90 93 97 92 88 81 68 63 67 69 63 62 64 68 71 71 76 91 92 94 99 98 98 96 98 98 96 97 95
93 93 94 95 96 98 97 93 98 95 92 96 99 94 95 93 90 94 85 80 69 63 68 62 64 65 71 78 80 90 94 94 98 98 99 98 99 99 98 98 98 98 98
96 93 97 98 98 98 98 98 98 95 98 97 97 98 93 94 98 93 90 83 69 69 64 68 68 68 71 82 96 99 98 99 99 97 99 99 99 97 95 96 97 98 98
97 96 97 97 98 99 99 98 98 97 98 95 92 92 97 94 100 91 87 85 75 68 70 70 69 70 76 82 91 95 98 98 98 96 98 98 99 98 97 96 97 98 98

GFSMA_prec_cthk_114.txt.gz
RH
45 45 42 42 41 38 34 32 31 33 34 36 37 38 37 33 35 39 42 47 59 64 66 73 70 66 64 65 63 71 89 95 93 80 71 66 57 49 46 37 30 26 23
52 52 54 52 49 43 38 34 34 34 35 37 40 39 39 41 39 39 45 49 51 61 63 66 65 66 61 58 63 69 90 88 97 81 72 68 60 55 54 42 34 28 25
68 63 61 58 57 53 43 39 38 41 40 40 40 43 44 44 45 45 46 46 47 51 54 56 58 59 60 58 59 74 90 94 93 88 73 66 62 50 53 49 38 30 25
75 78 80 79 76 64 50 48 45 43 45 45 45 48 51 50 46 45 44 46 46 47 52 53 55 56 55 53 54 68 88 97 94 94 74 67 63 55 47 50 41 32 26
79 76 82 84 88 81 70 57 53 52 49 49 49 55 57 57 53 49 44 41 44 47 46 46 51 54 55 50 48 60 80 82 94 96 77 69 64 58 50 48 44 39 31
64 69 72 75 81 88 83 85 70 59 54 52 52 56 62 62 62 55 50 46 43 45 44 40 43 44 44 46 45 55 70 74 86 94 92 77 70 68 55 48 47 44 38
47 52 59 63 65 68 74 83 81 82 81 73 64 64 63 61 65 59 53 48 49 46 44 38 38 40 39 42 46 55 64 75 77 90 93 86 81 78 65 55 48 47 43
36 40 39 39 44 54 60 70 78 86 81 87 92 88 82 76 66 61 57 54 53 48 44 43 38 37 38 40 43 48 61 67 73 78 87 90 86 86 75 53 46 43 41
20 22 28 31 30 35 40 48 55 67 79 79 85 95 98 95 85 73 60 54 52 52 51 46 43 37 37 36 39 44 52 55 63 72 81 94 90 88 82 59 45 42 40
20 18 16 18 21 23 27 29 39 50 57 63 74 78 91 97 91 86 73 62 55 53 50 50 46 40 38 39 39 44 52 64 63 71 81 95 94 90 86 70 45 44 37
25 25 23 22 22 26 29 30 29 37 48 60 64 78 84 88 81 83 81 69 59 54 49 51 48 44 39 42 42 48 56 67 73 77 85 97 98 92 88 78 56 45 37
28 30 29 28 27 28 32 33 33 33 42 50 56 63 68 70 67 65 72 74 66 55 52 54 54 45 42 41 48 52 57 70 77 89 95 98 98 92 90 84 67 52 37
34 34 34 33 28 29 29 34 41 45 44 52 66 69 72 75 70 59 63 77 68 61 58 59 60 50 46 44 51 56 68 74 87 96 96 98 99 96 90 83 65 54 34
37 38 35 34 34 34 32 37 47 55 58 67 74 88 84 81 80 73 65 76 78 68 64 59 62 54 50 43 51 59 70 86 98 98 98 99 98 98 88 74 65 51 37
38 37 36 37 41 39 39 42 51 60 65 64 62 74 78 81 84 84 83 84 81 76 67 66 68 60 56 47 54 64 72 88 96 96 94 94 94 98 89 78 65 50 41
37 38 40 42 43 42 48 46 50 54 58 74 88 89 78 81 74 80 88 90 82 74 68 64 64 64 60 53 53 70 71 82 89 94 96 96 95 99 98 94 82 60 45
36 40 42 45 50 54 64 63 60 56 73 88 83 84 77 79 85 81 83 85 80 79 74 73 74 76 65 59 54 66 76 81 86 91 94 96 97 98 99 97 92 79 70
41 42 46 52 54 63 69 75 77 73 83 91 81 73 72 78 84 85 85 83 79 82 86 82 86 80 69 66 59 65 76 85 93 95 95 96 97 98 98 96 95 92 93
47 47 50 56 61 70 71 73 88 91 88 89 77 67 73 80 79 81 80 83 85 91 94 89 92 89 77 70 60 73 80 81 94 91 97 95 97 95 98 94 97 98 97
52 52 56 62 67 77 79 76 83 93 92 92 84 80 80 88 86 85 88 90 88 94 97 90 88 89 79 64 65 73 72 74 78 85 91 90 94 94 95 94 95 95 96
56 59 66 72 77 82 82 84 90 91 88 87 96 91 90 92 91 94 89 85 89 95 97 94 92 90 72 66 64 68 70 69 67 71 79 85 85 87 89 91 94 96 96
62 69 75 80 88 90 93 95 93 96 95 98 95 94 98 94 89 90 90 86 91 94 95 95 89 82 63 65 64 60 64 67 67 66 70 72 80 82 86 93 93 93 94
73 79 80 87 93 96 96 98 98 98 98 99 99 93 96 96 87 90 90 94 99 97 97 89 80 71 64 65 65 66 62 64 66 69 68 75 80 87 90 91 95 97 97
83 86 86 92 95 95 97 97 96 96 97 96 93 98 93 88 92 92 97 98 92 96 92 81 73 69 65 66 61 65 66 69 73 72 79 79 90 85 89 92 99 98 94
90 92 94 96 97 97 98 98 98 98 97 97 95 96 93 95 96 94 94 99 97 97 86 72 67 68 63 62 64 64 68 72 78 86 87 85 87 93 94 97 97 99 97
84 89 94 96 97 97 98 98 98 98 98 98 98 98 97 99 98 96 98 99 99 92 87 76 63 61 61 63 67 68 70 77 86 95 98 98 97 98 97 98 99 99 99

GFSMA_prec_cthk_117.txt.gz
RH
53 49 45 43 41 40 41 43 43 42 42 42 41 41 41 39 38 36 33 36 40 39 47 57 64 69 71 69 63 62 63 71 92 95 96 85 70 64 54 50 43 35 29
58 57 55 53 50 49 47 48 48 44 43 44 44 44 44 43 41 39 37 38 40 41 43 50 58 65 63 64 62 61 59 72 92 96 96 91 74 65 58 50 45 37 32
70 66 66 62 59 62 58 58 57 54 48 45 46 46 47 45 44 43 40 41 43 44 44 42 47 53 54 59 61 59 57 68 87 96 97 95 73 68 60 57 50 39 34
78 76 75 70 66 70 78 78 78 67 56 48 49 49 49 49 47 47 44 41 41 41 43 43 42 46 52 54 58 57 56 60 79 88 95 95 74 74 60 55 57 45 36
81 81 83 82 78 80 87 79 87 82 66 58 52 58 57 53 53 54 52 47 44 43 42 43 43 42 42 48 52 57 57 57 72 83 90 92 82 75 64 54 54 53 41
66 75 79 80 83 83 92 97 94 84 78 88 78 60 64 63 57 56 59 59 54 47 45 45 44 41 40 42 43 49 52 52 66 76 84 99 89 74 68 59 50 52 47
46 51 58 67 71 73 77 84 84 80 79 99 90 79 82 85 79 81 77 72 69 61 52 50 46 41 41 37 36 38 44 49 60 65 73 93 93 80 70 62 56 48 47
31 31 36 43 48 51 54 63 70 73 75 75 80 92 97 93 84 86 94 90 83 71 66 57 53 41 39 40 35 35 39 48 54 65 73 88 92 93 77 69 65 56 50
28 27 27 27 31 38 41 42 46 52 56 61 68 81 86 87 88 83 83 91 95 81 71 60 59 46 41 43 37 36 37 41 47 57 67 75 86 89 91 83 74 66 49
28 27 26 24 22 22 23 29 35 37 39 46 48 59 67 71 73 76 72 74 91 80 74 60 59 53 45 45 42 38 37 40 43 46 57 73 73 86 92 92 86 73 52
27 28 28 25 23 21 19 17 19 25 26 27 35 40 46 53 62 67 68 70 80 78 71 64 61 56 49 49 45 42 40 41 48 50 55 61 73 85 89 96 93 83 59
23 27 31 32 31 28 27 25 24 24 30 32 30 34 44 47 51 54 59 61 63 68 66 72 67 56 53 52 47 44 45 44 48 53 60 63 68 84 87 93 97 91 69
23 25 31 34 35 35 34 33 31 29 32 37 39 37 38 42 53 56 56 53 55 62 66 65 71 60 56 53 50 48 46 47 49 55 58 61 72 96 98 94 98 94 83
29 27 29 35 38 36 36 37 35 32 31 36 41 44 48 56 56 59 55 64 68 74 71 66 69 66 56 55 53 53 50 48 50 55 64 70 75 93 98 99 98 97 90
41 35 31 32 36 39 41 40 39 36 37 37 39 46 53 63 65 68 70 68 74 85 80 76 70 63 59 61 57 57 53 51 52 58 66 86 91 95 99 98 99 98 92
37 38 35 29 34 38 40 41 39 38 38 38 42 51 59 66 67 71 71 80 79 83 91 82 76 70 71 70 60 60 58 57 55 61 71 89 96 97 98 98 98 96 86
39 36 35 35 36 36 36 42 42 43 43 45 54 60 59 62 70 79 84 83 88 87 88 95 88 80 79 73 63 63 65 62 54 65 77 91 97 97 98 98 96 95 90
44 40 39 39 37 37 39 42 45 47 50 57 67 73 61 84 90 88 77 86 86 87 95 97 93 86 81 73 67 68 70 62 57 66 80 89 95 95 95 94 93 93 90
42 43 43 42 41 40 42 46 48 50 56 64 76 86 87 90 93 90 87 86 90 92 93 93 85 92 88 78 79 81 74 64 62 66 80 89 95 96 96 96 97 99 97
52 51 48 47 45 47 48 50 53 57 66 74 86 97 91 92 89 85 83 87 92 90 93 88 93 88 92 90 91 88 75 66 62 76 83 90 95 98 98 98 97 97 96
57 56 55 54 53 53 54 56 61 67 75 82 84 92 97 90 79 72 81 88 93 92 85 87 83 88 92 95 93 87 81 73 63 78 80 90 88 96 97 94 98 99 98
63 61 60 59 59 58 58 63 70 80 84 89 91 93 93 87 85 89 98 90 89 86 84 82 84 85 92 94 91 89 79 70 66 72 73 76 80 84 88 90 93 93 98
70 68 67 66 64 63 65 66 81 90 95 98 98 97 96 92 95 98 93 90 93 93 89 90 91 87 96 95 92 87 78 76 69 72 74 72 68 69 72 76 80 83 87
67 71 72 69 69 68 71 74 88 96 98 98 99 99 98 99 98 96 93 85 86 90 95 97 95 92 99 95 95 82 77 72 66 68 66 67 69 67 68 71 73 75 80
50 52 57 66 74 77 78 83 94 98 98 98 99 99 99 98 99 97 98 88 94 96 99 95 98 99 97 95 92 78 74 69 66 66 62 63 65 66 66 65 80 80 84
41 46 46 47 51 65 77 88 93 96 97 97 98 97 99 98 98 94 92 93 96 98 99 98 95 96 96 89 87 79 76 63 65 64 61 67 69 73 78 82 83 83 90